EW4595 Weather Reports


Display with metric or nautical units.
time (UTC)temp
F
wind
direction
speed
MPH
gust
MPH
rain 1hr
in
rain 24hr
in
rain mn
in
humidity
%
barometer
mb
20260906104303 39 118 2.0 7.0 0.00 0.00 0.00 86 1035.1
20260906104203 39 127 2.0 7.0 0.00 0.00 0.00 87 1035.5
20260906104103 39 134 3.0 7.0 0.00 0.00 0.00 87 1035.1
20260906104003 39 162 2.0 7.0 0.00 0.00 0.00 87 1035.5
20260906103903 38 176 2.0 7.0 0.00 0.00 0.00 87 1035.5
20260906103803 39 188 1.0 4.0 0.00 0.00 0.00 87 1035.3
20260906103703 38 174 2.0 4.0 0.00 0.00 0.00 87 1035.3
20260906103603 38 174 2.0 4.0 0.00 0.00 0.00 87 1035.4
20260906103403 38 201 2.0 6.0 0.00 0.00 0.00 87 1035.3
20260906103303 38 211 2.0 6.0 0.00 0.00 0.00 87 1035.4
20260906103203 38 222 1.0 6.0 0.00 0.00 0.00 87 1035.4
20260906103118 38 234 2.0 6.0 0.00 0.00 0.00 87 1035.2
20260906103103 38 233 3.0 6.0 0.00 0.00 0.00 87 1035.4
20260906103003 38 212 2.0 6.0 0.00 0.00 0.00 87 1035.1
20260906102703 38 212 2.0 6.0 0.00 0.00 0.00 87 1035.3
20260906102603 38 196 3.0 8.0 0.00 0.00 0.00 87 1035.1
20260906102503 38 179 2.0 8.0 0.00 0.00 0.00 87 1035.2
20260906102306 38 174 2.0 8.0 0.00 0.00 0.00 87 1035.2
20260906102203 38 149 2.0 8.0 0.00 0.00 0.00 87 1035.1
20260906102103 38 147 3.0 8.0 0.00 0.00 0.00 86 1035.3
20260906102003 38 143 4.0 8.0 0.00 0.00 0.00 87 1035.0
20260906101903 38 129 2.0 8.0 0.00 0.00 0.00 86 1035.3
20260906101803 38 126 2.0 8.0 0.00 0.00 0.00 86 1035.2
20260906101703 38 144 3.0 7.0 0.00 0.00 0.00 86 1035.3
20260906101617 38 141 3.0 8.0 0.00 0.00 0.00 86 1035.4
20260906101603 38 139 3.0 8.0 0.00 0.00 0.00 86 1035.4
20260906101518 38 142 3.0 8.0 0.00 0.00 0.00 86 1035.3
20260906101503 38 141 3.0 8.0 0.00 0.00 0.00 86 1035.3
20260906101317 38 134 3.0 8.0 0.00 0.00 0.00 86 1035.2
20260906101203 38 119 2.0 8.0 0.00 0.00 0.00 86 1035.1
20260906101003 39 112 2.0 7.0 0.00 0.00 0.00 86 1035.0
20260906100903 39 114 3.0 7.0 0.00 0.00 0.00 86 1035.2
20260906100803 39 118 3.0 7.0 0.00 0.00 0.00 86 1035.2
20260906100703 39 129 4.0 7.0 0.00 0.00 0.00 86 1035.3
20260906100603 39 126 1.0 6.0 0.00 0.00 0.00 86 1034.9
20260906100503 39 126 2.0 6.0 0.00 0.00 0.00 86 1035.0
20260906100418 39 135 2.0 6.0 0.00 0.00 0.00 86 1035.2
20260906100407 39 138 2.0 6.0 0.00 0.00 0.00 86 1035.2
20260906100303 39 166 1.0 6.0 0.00 0.00 0.00 86 1035.2
20260906100217 39 159 2.0 6.0 0.00 0.00 0.00 86 1035.2
20260906100103 39 179 2.0 6.0 0.00 0.00 0.00 86 1035.2
20260906100019 39 197 1.0 4.0 0.00 0.00 0.00 86 1035.2
20260906095903 39 184 2.0 6.0 0.00 0.00 0.00 86 1035.0
20260906095718 39 196 2.0 6.0 0.00 0.00 0.00 86 1034.9
20260906095703 39 199 2.0 6.0 0.00 0.00 0.00 86 1034.9
20260906095603 39 200 2.0 6.0 0.00 0.00 0.00 86 1034.9
20260906095403 39 161 2.0 8.0 0.00 0.00 0.00 86 1034.9
20260906095306 39 143 2.0 8.0 0.00 0.00 0.00 86 1035.1
20260906095103 39 143 2.0 8.0 0.00 0.00 0.00 86 1035.1
20260906095003 39 179 3.0 8.0 0.00 0.00 0.00 86 1035.0
20260906094903 39 243 2.0 7.0 0.00 0.00 0.00 86 1035.0
20260906094803 39 219 3.0 7.0 0.00 0.00 0.00 86 1035.1
20260906094703 39 197 2.0 7.0 0.00 0.00 0.00 86 1035.1
20260906094604 39 203 1.0 7.0 0.00 0.00 0.00 86 1034.8
20260906094504 39 159 3.0 7.0 0.00 0.00 0.00 86 1035.2
20260906094403 39 146 2.0 6.0 0.00 0.00 0.00 86 1035.0
20260906094316 39 152 2.0 6.0 0.00 0.00 0.00 86 1034.8
20260906094303 39 156 2.0 6.0 0.00 0.00 0.00 86 1034.9
20260906094217 39 155 2.0 6.0 0.00 0.00 0.00 86 1034.8
20260906093903 39 201 1.0 4.0 0.00 0.00 0.00 86 1034.8
20260906093803 39 153 1.0 4.0 0.00 0.00 0.00 86 1034.6
20260906093703 39 131 1.0 4.0 0.00 0.00 0.00 86 1034.6
20260906093603 39 153 1.0 4.0 0.00 0.00 0.00 86 1034.8
20260906093503 39 151 1.0 6.0 0.00 0.00 0.00 86 1034.5
20260906093403 39 158 2.0 6.0 0.00 0.00 0.00 86 1034.7
20260906093303 39 176 2.0 6.0 0.00 0.00 0.00 86 1034.7
20260906093203 39 199 1.0 6.0 0.00 0.00 0.00 86 1034.5
20260906093103 39 170 2.0 6.0 0.00 0.00 0.00 86 1034.7
20260906093003 39 175 4.0 6.0 0.00 0.00 0.00 86 1034.6
20260906092917 39 178 2.0 6.0 0.00 0.00 0.00 86 1034.6
20260906092903 39 166 2.0 6.0 0.00 0.00 0.00 86 1034.6
20260906092803 39 152 2.0 6.0 0.00 0.00 0.00 86 1034.6
20260906092718 39 138 2.0 6.0 0.00 0.00 0.00 86 1034.8
20260906092603 39 164 1.0 4.0 0.00 0.00 0.00 86 1034.5
20260906092517 39 161 2.0 4.0 0.00 0.00 0.00 86 1034.6
20260906092203 39 184 2.0 7.0 0.00 0.00 0.00 86 1034.5
20260906092103 39 169 2.0 7.0 0.00 0.00 0.00 86 1034.4
20260906092003 39 172 2.0 7.0 0.00 0.00 0.00 86 1034.3
20260906091917 39 171 3.0 7.0 0.00 0.00 0.00 86 1034.5
20260906091903 39 165 2.0 7.0 0.00 0.00 0.00 86 1034.2
20260906091803 39 166 3.0 7.0 0.00 0.00 0.00 86 1034.5
20260906091718 39 162 2.0 7.0 0.00 0.00 0.00 86 1034.2
20260906091603 39 176 2.0 7.0 0.00 0.00 0.00 86 1034.3
20260906091403 39 144 3.0 7.0 0.00 0.00 0.00 86 1034.2
20260906091303 39 134 3.0 9.0 0.00 0.00 0.00 86 1034.3
20260906091203 39 110 3.0 9.0 0.00 0.00 0.00 86 1034.4
20260906091103 39 120 2.0 9.0 0.00 0.00 0.00 86 1034.4
20260906091003 39 124 2.0 9.0 0.00 0.00 0.00 86 1034.2
20260906090903 39 151 4.0 9.0 0.00 0.00 0.00 86 1034.2
20260906090703 39 183 4.0 8.0 0.00 0.00 0.00 86 1034.1
20260906090603 39 174 3.0 7.0 0.00 0.00 0.00 86 1034.1
20260906090503 39 172 4.0 8.0 0.00 0.00 0.00 86 1034.5
20260906090418 39 164 4.0 8.0 0.00 0.00 0.00 86 1034.2
20260906090303 40 153 2.0 8.0 0.00 0.00 0.00 86 1034.3
20260906090217 40 148 2.0 8.0 0.00 0.00 0.00 86 1034.1
20260906090103 40 141 2.0 8.0 0.00 0.00 0.00 86 1034.2
20260906085903 40 130 1.0 4.0 0.00 0.00 0.00 86 1034.1
20260906085803 40 143 2.0 7.0 0.00 0.00 0.00 86 1034.2
20260906085703 40 142 2.0 7.0 0.00 0.00 0.00 86 1034.0
20260906085603 40 145 2.0 7.0 0.00 0.00 0.00 86 1034.2
20260906085503 40 138 2.0 7.0 0.00 0.00 0.00 86 1034.1
20260906085403 40 131 2.0 8.0 0.00 0.00 0.00 86 1034.3
20260906085306 40 137 3.0 8.0 0.00 0.00 0.00 86 1034.2
20260906085217 40 152 2.0 8.0 0.00 0.00 0.00 86 1034.3
20260906085203 40 158 2.0 8.0 0.00 0.00 0.00 86 1034.3
20260906085103 40 167 3.0 8.0 0.00 0.00 0.00 86 1034.2
20260906084903 40 189 4.0 8.0 0.00 0.00 0.00 86 1034.4
20260906084803 40 172 3.0 8.0 0.00 0.00 0.00 86 1034.2
20260906084703 40 159 3.0 8.0 0.00 0.00 0.00 86 1034.2
20260906084603 40 138 3.0 8.0 0.00 0.00 0.00 86 1034.3
20260906084503 40 164 3.0 8.0 0.00 0.00 0.00 86 1034.2
20260906084403 40 143 1.0 8.0 0.00 0.00 0.00 86 1034.3
20260906084303 40 143 2.0 7.0 0.00 0.00 0.00 86 1034.2
20260906084203 40 143 2.0 7.0 0.00 0.00 0.00 86 1034.2
20260906084117 40 147 2.0 7.0 0.00 0.00 0.00 86 1034.2
20260906084103 40 149 2.0 7.0 0.00 0.00 0.00 86 1034.2
20260906084018 40 162 4.0 8.0 0.00 0.00 0.00 86 1034.3
20260906084003 40 168 4.0 8.0 0.00 0.00 0.00 86 1034.3
20260906083703 40 167 2.0 8.0 0.00 0.00 0.00 86 1034.2
20260906083603 40 161 3.0 8.0 0.00 0.00 0.00 86 1034.1
20260906083503 40 149 4.0 7.0 0.00 0.00 0.00 86 1034.0
20260906083403 40 156 2.0 7.0 0.00 0.00 0.00 86 1034.1
20260906083303 40 150 3.0 7.0 0.00 0.00 0.00 86 1034.1
20260906083203 40 152 4.0 7.0 0.00 0.00 0.00 86 1034.0
20260906083103 40 139 2.0 7.0 0.00 0.00 0.00 85 1034.2
20260906083005 40 139 2.0 8.0 0.00 0.00 0.00 86 1034.1
20260906082903 40 145 2.0 8.0 0.00 0.00 0.00 85 1033.9
20260906082803 40 127 2.0 11.0 0.00 0.00 0.00 85 1034.1
20260906082703 40 143 2.0 11.0 0.00 0.00 0.00 85 1034.0
20260906082605 40 164 3.0 11.0 0.00 0.00 0.00 85 1034.1
20260906082503 40 208 3.0 11.0 0.00 0.00 0.00 85 1033.9
20260906082306 40 153 2.0 6.0 0.00 0.00 0.00 85 1034.2
20260906082204 40 142 2.0 8.0 0.00 0.00 0.00 85 1034.1
20260906082117 40 153 2.0 8.0 0.00 0.00 0.00 85 1034.1
20260906082103 40 150 2.0 8.0 0.00 0.00 0.00 85 1034.1
20260906081803 40 152 2.0 8.0 0.00 0.00 0.00 85 1033.9
20260906081705 40 153 4.0 8.0 0.00 0.00 0.00 85 1034.0
20260906081603 40 142 4.0 8.0 0.00 0.00 0.00 85 1034.1
20260906081505 40 151 3.0 7.0 0.00 0.00 0.00 85 1034.0
20260906081411 40 148 3.0 7.0 0.00 0.00 0.00 85 1034.0
20260906081303 40 149 2.0 7.0 0.00 0.00 0.00 85 1033.8
20260906081203 40 161 4.0 7.0 0.00 0.00 0.00 85 1034.1
20260906081103 40 177 3.0 7.0 0.00 0.00 0.00 85 1034.3
20260906081003 40 202 2.0 7.0 0.00 0.00 0.00 85 1033.7
20260906080904 40 219 1.0 7.0 0.00 0.00 0.00 85 1034.0
20260906080803 40 189 4.0 7.0 0.00 0.00 0.00 85 1033.9
20260906080703 40 190 2.0 6.0 0.00 0.00 0.00 85 1033.9
20260906080603 40 201 2.0 8.0 0.00 0.00 0.00 85 1033.8
20260906080503 40 200 3.0 8.0 0.00 0.00 0.00 85 1034.2
20260906080318 40 227 2.0 8.0 0.00 0.00 0.00 85 1034.2
20260906080303 40 230 2.0 8.0 0.00 0.00 0.00 85 1033.9
20260906080203 40 219 2.0 8.0 0.00 0.00 0.00 85 1034.0
20260906080005 40 201 3.0 7.0 0.00 0.00 0.00 85 1034.1
20260906075903 40 198 1.0 7.0 0.00 0.00 0.00 85 1033.9
20260906075803 40 195 2.0 7.0 0.00 0.00 0.00 85 1033.8
20260906075703 40 189 2.0 7.0 0.00 0.00 0.00 85 1033.9
20260906075503 40 216 2.0 7.0 0.00 0.00 0.00 85 1034.1
20260906075403 40 209 2.0 7.0 0.00 0.00 0.00 85 1033.9
20260906075306 40 200 2.0 7.0 0.00 0.00 0.00 85 1034.0
20260906075203 40 194 3.0 7.0 0.00 0.00 0.00 85 1034.0
20260906075103 41 196 2.0 7.0 0.00 0.00 0.00 85 1033.9
20260906075004 41 178 2.0 7.0 0.00 0.00 0.00 85 1033.9
20260906074903 41 178 2.0 6.0 0.00 0.00 0.00 85 1034.0
20260906074703 41 203 3.0 6.0 0.00 0.00 0.00 85 1033.8
20260906074603 41 195 2.0 4.0 0.00 0.00 0.00 85 1034.0
20260906074503 41 240 1.0 4.0 0.00 0.00 0.00 84 1034.0
20260906074303 41 258 2.0 7.0 0.00 0.00 0.00 84 1034.0
20260906074203 41 275 2.0 7.0 0.00 0.00 0.00 84 1034.0
20260906074117 41 262 1.0 7.0 0.00 0.00 0.00 84 1033.9
20260906074103 41 254 1.0 7.0 0.00 0.00 0.00 84 1033.9
20260906074003 41 228 2.0 7.0 0.00 0.00 0.00 84 1034.0
20260906073803 41 209 4.0 7.0 0.00 0.00 0.00 84 1033.9
20260906073703 41 164 3.0 7.0 0.00 0.00 0.00 84 1033.8
20260906073603 41 142 2.0 6.0 0.00 0.00 0.00 84 1033.9
20260906073503 41 149 1.0 7.0 0.00 0.00 0.00 84 1034.0
20260906073403 41 144 2.0 7.0 0.00 0.00 0.00 84 1034.0
20260906073303 41 145 2.0 7.0 0.00 0.00 0.00 84 1033.9
20260906073203 41 143 2.0 7.0 0.00 0.00 0.00 84 1034.0
20260906073103 41 144 4.0 8.0 0.00 0.00 0.00 84 1034.0
20260906073003 41 139 4.0 8.0 0.00 0.00 0.00 84 1034.0
20260906072918 41 153 2.0 8.0 0.00 0.00 0.00 84 1034.0
20260906072903 41 154 2.0 8.0 0.00 0.00 0.00 84 1034.0
20260906072803 41 147 2.0 8.0 0.00 0.00 0.00 84 1034.0
20260906072603 41 159 4.0 9.0 0.00 0.00 0.00 84 1034.1
20260906072504 41 148 2.0 9.0 0.00 0.00 0.00 84 1033.8
20260906072403 41 142 2.0 9.0 0.00 0.00 0.00 84 1034.0
20260906072305 41 143 4.0 9.0 0.00 0.00 0.00 84 1034.1
20260906072203 41 146 2.0 9.0 0.00 0.00 0.00 84 1033.9
20260906072103 41 163 4.0 9.0 0.00 0.00 0.00 84 1034.0
20260906072003 41 167 3.0 8.0 0.00 0.00 0.00 84 1034.0
20260906071903 41 192 3.0 8.0 0.00 0.00 0.00 84 1033.9
20260906071803 41 215 2.0 8.0 0.00 0.00 0.00 84 1034.0
20260906071703 41 207 4.0 8.0 0.00 0.00 0.00 83 1034.0
20260906071503 41 239 3.0 9.0 0.00 0.00 0.00 83 1034.2
20260906071403 41 273 3.0 9.0 0.00 0.00 0.00 83 1034.1
20260906071303 41 316 3.0 9.0 0.00 0.00 0.00 83 1033.9
20260906071203 41 234 2.0 9.0 0.00 0.00 0.00 83 1034.0
20260906071117 41 220 2.0 9.0 0.00 0.00 0.00 83 1034.1
20260906071103 41 236 2.0 9.0 0.00 0.00 0.00 83 1034.1
20260906071003 41 227 3.0 9.0 0.00 0.00 0.00 83 1034.1
20260906070803 41 230 2.0 9.0 0.00 0.00 0.00 83 1034.0
20260906070703 41 228 2.0 9.0 0.00 0.00 0.00 83 1033.9
20260906070603 41 224 5.0 9.0 0.00 0.00 0.00 83 1034.2
20260906070503 41 184 4.0 9.0 0.00 0.00 0.00 83 1033.9
20260906070403 41 174 2.0 8.0 0.00 0.00 0.00 83 1033.9
20260906070303 41 145 2.0 8.0 0.00 0.00 0.00 83 1033.8
20260906070203 41 144 1.0 8.0 0.00 0.00 0.00 83 1033.9
20260906070004 41 138 4.0 8.0 0.00 0.00 0.00 83 1033.9
20260906065803 42 153 3.0 11.0 0.00 0.00 0.00 83 1033.8
20260906065717 42 161 2.0 11.0 0.00 0.00 0.00 83 1033.8
20260906065703 42 162 2.0 11.0 0.00 0.00 0.00 83 1033.8
20260906065603 42 154 0.0 11.0 0.00 0.00 0.00 83 1034.1
20260906065403 42 167 6.0 11.0 0.00 0.00 0.00 83 1033.9
20260906065305 42 148 3.0 11.0 0.00 0.00 0.00 83 1034.0
20260906065203 42 146 1.0 11.0 0.00 0.00 0.00 83 1033.9
20260906065103 42 145 3.0 11.0 0.00 0.00 0.00 83 1033.9
20260906065003 42 135 4.0 11.0 0.00 0.00 0.00 83 1033.9
20260906064903 42 156 4.0 11.0 0.00 0.00 0.00 83 1034.0
20260906064803 42 148 2.0 4.0 0.00 0.00 0.00 83 1033.9
20260906064717 42 142 2.0 4.0 0.00 0.00 0.00 83 1033.9
20260906064703 42 151 2.0 9.0 0.00 0.00 0.00 83 1033.8
20260906064603 42 182 2.0 9.0 0.00 0.00 0.00 83 1034.0
20260906064403 42 177 2.0 9.0 0.00 0.00 0.00 83 1033.7
20260906064303 42 167 2.0 11.0 0.00 0.00 0.00 82 1033.8
20260906064203 42 160 4.0 11.0 0.00 0.00 0.00 82 1033.7
20260906064103 42 137 3.0 11.0 0.00 0.00 0.00 82 1033.6
20260906064017 42 122 3.0 11.0 0.00 0.00 0.00 82 1034.0
20260906064003 42 118 3.0 11.0 0.00 0.00 0.00 82 1034.0
20260906063903 42 109 4.0 11.0 0.00 0.00 0.00 82 1033.9
20260906063703 42 130 2.0 7.0 0.00 0.00 0.00 82 1034.0
20260906063603 42 150 4.0 7.0 0.00 0.00 0.00 82 1034.0
20260906063503 42 152 0.0 11.0 0.00 0.00 0.00 82 1033.8
20260906063403 42 146 2.0 11.0 0.00 0.00 0.00 82 1033.7
20260906063317 42 141 2.0 11.0 0.00 0.00 0.00 82 1033.8
20260906063303 42 144 2.0 11.0 0.00 0.00 0.00 82 1033.8
20260906063203 42 152 2.0 11.0 0.00 0.00 0.00 82 1033.7
20260906063003 42 147 4.0 11.0 0.00 0.00 0.00 82 1033.6
20260906062903 42 136 4.0 11.0 0.00 0.00 0.00 82 1033.7
20260906062803 42 141 2.0 7.0 0.00 0.00 0.00 82 1033.9
20260906062703 42 127 4.0 7.0 0.00 0.00 0.00 82 1033.8
20260906062603 42 118 3.0 7.0 0.00 0.00 0.00 82 1033.6
20260906062518 42 127 3.0 7.0 0.00 0.00 0.00 82 1033.9
20260906062503 42 129 3.0 7.0 0.00 0.00 0.00 82 1033.9
20260906062403 42 167 3.0 9.0 0.00 0.00 0.00 82 1033.7
20260906062203 42 150 2.0 13.0 0.00 0.00 0.00 82 1033.7
20260906062103 42 158 1.0 13.0 0.00 0.00 0.00 82 1034.0
20260906062003 42 189 2.0 13.0 0.00 0.00 0.00 83 1033.7
20260906061903 42 162 3.0 13.0 0.00 0.00 0.00 83 1033.8
20260906061803 42 195 3.0 7.0 0.00 0.00 0.00 83 1033.8
20260906061703 42 187 2.0 7.0 0.00 0.00 0.00 83 1033.9
20260906061603 42 211 2.0 9.0 0.00 0.00 0.00 83 1033.7
20260906061518 42 198 3.0 9.0 0.00 0.00 0.00 83 1033.9
20260906061403 42 208 2.0 9.0 0.00 0.00 0.00 83 1033.8
20260906061218 42 219 2.0 9.0 0.00 0.00 0.00 82 1033.9
20260906061203 42 218 2.0 9.0 0.00 0.00 0.00 82 1033.9
20260906061103 42 190 4.0 8.0 0.00 0.00 0.00 83 1034.0
20260906060903 42 189 3.0 8.0 0.00 0.00 0.00 82 1033.9
20260906060803 42 154 3.0 8.0 0.00 0.00 0.00 83 1033.9
20260906060703 42 141 3.0 11.0 0.00 0.00 0.00 82 1033.9
20260906060603 42 156 1.0 11.0 0.00 0.00 0.00 82 1033.7
20260906060503 42 153 1.0 11.0 0.00 0.00 0.00 82 1033.5
20260906060416 42 153 2.0 11.0 0.00 0.00 0.00 82 1033.6
20260906060303 42 174 3.0 11.0 0.00 0.00 0.00 82 1033.7
20260906060103 43 218 2.0 9.0 0.00 0.00 0.00 82 1033.8
20260906060004 43 219 3.0 9.0 0.00 0.00 0.00 82 1033.7
20260906055903 43 195 2.0 9.0 0.00 0.00 0.00 82 1033.6
20260906055803 43 156 2.0 9.0 0.00 0.00 0.00 82 1033.7
20260906055703 43 163 3.0 13.0 0.00 0.00 0.00 82 1033.6
20260906055603 43 164 5.0 13.0 0.00 0.00 0.00 82 1033.7
20260906055503 43 179 2.0 13.0 0.00 0.00 0.00 82 1033.7
20260906055403 43 192 2.0 13.0 0.00 0.00 0.00 82 1033.8
20260906055317 43 205 3.0 13.0 0.00 0.00 0.00 82 1033.5
20260906055306 43 209 3.0 13.0 0.00 0.00 0.00 82 1033.5
20260906055204 43 212 5.0 13.0 0.00 0.00 0.00 82 1033.7
20260906055003 43 212 5.0 11.0 0.00 0.00 0.00 81 1033.8
20260906054917 44 204 4.0 11.0 0.00 0.00 0.00 81 1033.7
20260906054903 44 190 4.0 11.0 0.00 0.00 0.00 81 1033.7
20260906054803 44 168 3.0 11.0 0.00 0.00 0.00 81 1033.8
20260906054603 44 178 1.0 11.0 0.00 0.00 0.00 81 1033.6
20260906054503 44 168 4.0 11.0 0.00 0.00 0.00 81 1033.8
20260906054416 44 186 4.0 8.0 0.00 0.00 0.00 81 1033.7
20260906054403 44 194 4.0 8.0 0.00 0.00 0.00 81 1033.7
20260906054303 44 203 2.0 7.0 0.00 0.00 0.00 81 1033.7
20260906054103 44 180 3.0 6.0 0.00 0.00 0.00 81 1033.8
20260906054003 44 198 1.0 7.0 0.00 0.00 0.00 81 1033.6
20260906053903 44 202 2.0 7.0 0.00 0.00 0.00 81 1033.8
20260906053803 44 207 2.0 7.0 0.00 0.00 0.00 81 1033.7
20260906053703 44 199 3.0 7.0 0.00 0.00 0.00 81 1033.6
20260906053603 44 222 2.0 7.0 0.00 0.00 0.00 81 1033.7
20260906053518 44 225 4.0 8.0 0.00 0.00 0.00 81 1033.7
20260906053504 44 228 2.0 8.0 0.00 0.00 0.00 81 1033.5
20260906053403 44 232 2.0 8.0 0.00 0.00 0.00 81 1033.6
20260906053103 44 231 4.0 8.0 0.00 0.00 0.00 81 1033.5
20260906053003 44 228 3.0 8.0 0.00 0.00 0.00 81 1033.7
20260906052903 44 206 4.0 8.0 0.00 0.00 0.00 81 1033.6
20260906052718 44 196 2.0 7.0 0.00 0.00 0.00 81 1033.5
20260906052704 44 195 3.0 7.0 0.00 0.00 0.00 81 1033.5
20260906052603 44 183 4.0 7.0 0.00 0.00 0.00 81 1033.7
20260906052403 44 185 3.0 7.0 0.00 0.00 0.00 81 1033.5
20260906052305 44 183 4.0 7.0 0.00 0.00 0.00 81 1033.6
20260906052203 44 169 2.0 4.0 0.00 0.00 0.00 81 1033.7
20260906052103 44 156 2.0 4.0 0.00 0.00 0.00 81 1033.6
20260906052003 44 173 2.0 6.0 0.00 0.00 0.00 81 1033.4
20260906051917 44 227 2.0 6.0 0.00 0.00 0.00 81 1033.5
20260906051903 44 231 0.0 6.0 0.00 0.00 0.00 81 1033.6
20260906051803 44 236 2.0 7.0 0.00 0.00 0.00 81 1033.7
20260906051603 44 245 2.0 7.0 0.00 0.00 0.00 81 1033.3
20260906051503 44 230 2.0 7.0 0.00 0.00 0.00 81 1033.4
20260906051405 44 215 3.0 8.0 0.00 0.00 0.00 81 1033.3
20260906051303 44 210 3.0 8.0 0.00 0.00 0.00 81 1033.6
20260906051217 44 207 3.0 8.0 0.00 0.00 0.00 81 1033.5
20260906051203 44 208 3.0 8.0 0.00 0.00 0.00 81 1033.5
20260906051118 44 229 3.0 8.0 0.00 0.00 0.00 81 1033.4
20260906051103 44 231 3.0 8.0 0.00 0.00 0.00 81 1033.7
20260906050803 44 215 3.0 8.0 0.00 0.00 0.00 81 1033.5
20260906050718 44 231 3.0 8.0 0.00 0.00 0.00 81 1033.7
20260906050703 44 231 3.0 8.0 0.00 0.00 0.00 81 1033.6
20260906050603 44 214 3.0 7.0 0.00 0.00 0.00 81 1033.7
20260906050418 44 209 2.0 7.0 0.00 0.00 0.00 81 1033.8
20260906050403 44 212 2.0 7.0 0.00 0.00 0.00 81 1033.8
20260906050317 44 214 3.0 7.0 0.00 0.00 0.00 81 1033.8
20260906050303 44 218 4.0 7.0 0.00 0.00 0.00 81 1033.7
20260906050003 44 214 2.0 6.0 0.00 0.00 0.00 80 1033.5
20260906045917 44 204 3.0 6.0 0.00 0.00 0.00 80 1033.7
20260906045903 44 203 2.0 8.0 0.00 0.00 0.00 80 1033.6
20260906045617 44 199 2.0 8.0 0.00 0.00 0.00 80 1033.5
20260906045603 44 202 2.0 8.0 0.00 0.00 0.00 80 1033.5
20260906045503 44 198 2.0 8.0 0.00 0.00 0.00 80 1033.5
20260906045306 44 196 3.0 7.0 0.00 0.00 0.00 80 1033.6
20260906045203 44 209 3.0 7.0 0.00 0.00 0.00 80 1033.7
20260906045103 44 209 4.0 7.0 0.00 0.00 0.00 80 1033.6
20260906045003 44 219 2.0 7.0 0.00 0.00 0.00 80 1033.6
20260906044903 44 228 2.0 7.0 0.00 0.00 0.00 80 1033.7
20260906044808 44 228 1.0 7.0 0.00 0.00 0.00 80 1033.6
20260906044718 44 231 2.0 7.0 0.00 0.00 0.00 80 1033.6
20260906044603 44 232 3.0 7.0 0.00 0.00 0.00 80 1033.3
20260906044517 44 225 4.0 7.0 0.00 0.00 0.00 80 1033.6
20260906044403 44 245 2.0 4.0 0.00 0.00 0.00 80 1033.5
20260906044317 44 244 1.0 4.0 0.00 0.00 0.00 80 1033.5
20260906044203 44 233 2.0 4.0 0.00 0.00 0.00 80 1033.6
20260906044003 44 216 3.0 4.0 0.00 0.00 0.00 80 1033.5
20260906043903 44 208 2.0 4.0 0.00 0.00 0.00 80 1033.7
20260906043803 44 207 2.0 4.0 0.00 0.00 0.00 80 1033.7
20260906043703 44 211 2.0 4.0 0.00 0.00 0.00 80 1033.7
20260906043503 44 205 2.0 6.0 0.00 0.00 0.00 80 1033.7
20260906043403 44 206 2.0 6.0 0.00 0.00 0.00 80 1033.6
20260906043303 44 204 2.0 6.0 0.00 0.00 0.00 80 1033.6
20260906043203 44 194 2.0 6.0 0.00 0.00 0.00 80 1033.6
20260906043103 44 189 3.0 6.0 0.00 0.00 0.00 80 1033.6
20260906043003 44 191 3.0 6.0 0.00 0.00 0.00 80 1033.4
20260906042903 44 190 2.0 4.0 0.00 0.00 0.00 80 1033.9
20260906042818 44 184 2.0 4.0 0.00 0.00 0.00 80 1033.6
20260906042803 44 183 2.0 4.0 0.00 0.00 0.00 80 1033.6
20260906042703 44 206 2.0 6.0 0.00 0.00 0.00 80 1033.7
20260906042617 44 204 2.0 6.0 0.00 0.00 0.00 80 1033.6
20260906042503 44 196 2.0 6.0 0.00 0.00 0.00 80 1033.4
20260906042306 44 203 2.0 6.0 0.00 0.00 0.00 79 1033.5
20260906042203 44 185 2.0 6.0 0.00 0.00 0.00 79 1033.5
20260906042103 44 204 2.0 6.0 0.00 0.00 0.00 79 1033.6
20260906042003 44 208 2.0 7.0 0.00 0.00 0.00 79 1033.6
20260906041903 44 217 3.0 7.0 0.00 0.00 0.00 79 1033.8
20260906041803 44 206 3.0 7.0 0.00 0.00 0.00 79 1033.6
20260906041703 44 217 4.0 7.0 0.00 0.00 0.00 79 1033.7
20260906041617 44 222 2.0 7.0 0.00 0.00 0.00 79 1033.6
20260906041603 44 223 2.0 7.0 0.00 0.00 0.00 79 1033.6
20260906041503 44 227 2.0 7.0 0.00 0.00 0.00 79 1033.7
20260906041303 44 246 4.0 7.0 0.00 0.00 0.00 79 1033.9
20260906041208 44 253 3.0 6.0 0.00 0.00 0.00 79 1033.6
20260906041103 44 236 2.0 4.0 0.00 0.00 0.00 79 1033.6
20260906041004 44 234 2.0 4.0 0.00 0.00 0.00 79 1033.6
20260906040903 44 190 2.0 4.0 0.00 0.00 0.00 79 1033.6
20260906040703 44 189 2.0 7.0 0.00 0.00 0.00 79 1033.4
20260906040603 44 183 2.0 7.0 0.00 0.00 0.00 79 1033.4
20260906040503 44 190 2.0 7.0 0.00 0.00 0.00 79 1033.4
20260906040403 44 210 2.0 7.0 0.00 0.00 0.00 79 1033.6
20260906040303 44 226 3.0 7.0 0.00 0.00 0.00 79 1033.4
20260906040203 44 226 2.0 6.0 0.00 0.00 0.00 79 1033.6
20260906040103 44 218 2.0 6.0 0.00 0.00 0.00 79 1033.6
20260906040005 44 230 2.0 6.0 0.00 0.00 0.00 79 1033.5
20260906035903 44 230 2.0 7.0 0.00 0.00 0.00 79 1033.5
20260906035803 44 220 2.0 7.0 0.00 0.00 0.00 79 1033.6
20260906035703 44 223 2.0 7.0 0.00 0.00 0.00 79 1033.5
20260906035503 44 220 4.0 7.0 0.00 0.00 0.00 79 1033.5
20260906035403 44 202 2.0 7.0 0.00 0.00 0.00 78 1033.6
20260906035306 44 205 1.0 7.0 0.00 0.00 0.00 78 1033.5
20260906035204 44 215 2.0 8.0 0.00 0.00 0.00 78 1033.5
20260906035117 44 223 3.0 8.0 0.00 0.00 0.00 78 1033.5
20260906035103 44 221 3.0 8.0 0.00 0.00 0.00 78 1033.4
20260906035003 44 210 3.0 8.0 0.00 0.00 0.00 78 1033.6
20260906034803 44 220 2.0 8.0 0.00 0.00 0.00 78 1033.5
20260906034705 44 204 2.0 8.0 0.00 0.00 0.00 78 1033.6
20260906034603 44 196 2.0 8.0 0.00 0.00 0.00 78 1033.5
20260906034503 44 205 2.0 8.0 0.00 0.00 0.00 78 1033.7
20260906034418 44 201 4.0 8.0 0.00 0.00 0.00 78 1033.4
20260906034403 44 202 4.0 8.0 0.00 0.00 0.00 78 1033.4
20260906034318 44 207 2.0 7.0 0.00 0.00 0.00 78 1033.3
20260906034303 44 206 3.0 7.0 0.00 0.00 0.00 78 1033.6
20260906034117 44 200 4.0 8.0 0.00 0.00 0.00 78 1033.3
20260906034019 45 182 3.0 8.0 0.00 0.00 0.00 78 1033.3
20260906034003 45 178 3.0 8.0 0.00 0.00 0.00 78 1033.3
20260906033703 45 202 2.0 8.0 0.00 0.00 0.00 77 1033.5
20260906033616 45 205 4.0 8.0 0.00 0.00 0.00 77 1033.8
20260906033603 45 206 4.0 8.0 0.00 0.00 0.00 77 1033.8
20260906033503 45 237 3.0 7.0 0.00 0.00 0.00 77 1033.5
20260906033303 45 223 4.0 7.0 0.00 0.00 0.00 77 1033.5
20260906033205 45 180 4.0 7.0 0.00 0.00 0.00 77 1033.4
20260906033103 45 177 4.0 7.0 0.00 0.00 0.00 77 1033.4
20260906033003 45 179 3.0 6.0 0.00 0.00 0.00 77 1033.6
20260906032906 45 185 2.0 6.0 0.00 0.00 0.00 77 1033.2
20260906032817 45 204 2.0 7.0 0.00 0.00 0.00 77 1033.5
20260906032803 45 210 2.0 7.0 0.00 0.00 0.00 77 1033.5
20260906032703 45 239 2.0 7.0 0.00 0.00 0.00 77 1033.3
20260906032503 45 240 3.0 7.0 0.00 0.00 0.00 77 1033.1
20260906032403 45 244 2.0 7.0 0.00 0.00 0.00 77 1033.3
20260906032306 45 246 4.0 6.0 0.00 0.00 0.00 77 1033.4
20260906032203 45 216 2.0 6.0 0.00 0.00 0.00 76 1033.3
20260906032103 45 222 3.0 7.0 0.00 0.00 0.00 76 1033.3
20260906032003 45 221 2.0 7.0 0.00 0.00 0.00 76 1033.3
20260906031903 45 223 2.0 7.0 0.00 0.00 0.00 76 1033.3
20260906031803 45 218 3.0 7.0 0.00 0.00 0.00 76 1033.2
20260906031703 45 244 3.0 7.0 0.00 0.00 0.00 76 1033.0
20260906031603 45 238 4.0 7.0 0.00 0.00 0.00 76 1032.9
20260906031503 45 232 2.0 8.0 0.00 0.00 0.00 76 1033.2
20260906031403 45 226 4.0 8.0 0.00 0.00 0.00 76 1033.1
20260906031324 45 227 2.0 8.0 0.00 0.00 0.00 76 1032.8
20260906031003 45 208 3.0 8.0 0.00 0.00 0.00 75 1033.0
20260906030903 45 193 3.0 8.0 0.00 0.00 0.00 75 1033.0
20260906030808 45 187 4.0 8.0 0.00 0.00 0.00 75 1033.3
20260906030703 45 195 4.0 7.0 0.00 0.00 0.00 75 1033.1
20260906030603 45 207 2.0 7.0 0.00 0.00 0.00 75 1033.1
20260906030503 45 207 3.0 7.0 0.00 0.00 0.00 75 1032.9
20260906030420 45 218 2.0 7.0 0.00 0.00 0.00 75 1032.9
20260906030403 45 225 2.0 7.0 0.00 0.00 0.00 75 1032.9
20260906030303 45 224 4.0 7.0 0.00 0.00 0.00 75 1033.2
20260906030104 45 205 4.0 7.0 0.00 0.00 0.00 74 1032.9
20260906030009 46 205 3.0 7.0 0.00 0.00 0.00 74 1033.1
20260906025903 45 211 4.0 9.0 0.00 0.00 0.00 74 1033.0
20260906025819 45 206 4.0 9.0 0.00 0.00 0.00 74 1033.0
20260906025803 45 195 2.0 14.0 0.00 0.00 0.00 74 1033.1
20260906025703 45 194 4.0 14.0 0.00 0.00 0.00 74 1033.0
20260906025503 46 205 4.0 14.0 0.00 0.00 0.00 74 1033.2
20260906025403 46 202 5.0 14.0 0.00 0.00 0.00 73 1033.0
20260906025306 46 218 5.0 14.0 0.00 0.00 0.00 73 1033.1
20260906025203 46 226 3.0 7.0 0.00 0.00 0.00 73 1033.1
20260906025103 46 224 4.0 8.0 0.00 0.00 0.00 73 1033.0
20260906025003 46 226 4.0 8.0 0.00 0.00 0.00 73 1033.0
20260906024903 46 223 2.0 8.0 0.00 0.00 0.00 73 1032.8
20260906024805 46 216 2.0 8.0 0.00 0.00 0.00 73 1032.9
20260906024717 46 222 3.0 8.0 0.00 0.00 0.00 73 1032.9
20260906024703 46 224 4.0 8.0 0.00 0.00 0.00 72 1032.8
20260906024603 46 224 3.0 7.0 0.00 0.00 0.00 72 1032.9
20260906024403 46 223 2.0 7.0 0.00 0.00 0.00 72 1033.0
20260906024307 46 226 2.0 7.0 0.00 0.00 0.00 72 1032.9
20260906024203 46 222 4.0 9.0 0.00 0.00 0.00 72 1033.0
20260906024104 46 208 4.0 9.0 0.00 0.00 0.00 72 1033.0
20260906024017 46 203 3.0 9.0 0.00 0.00 0.00 72 1032.9
20260906024003 46 204 3.0 9.0 0.00 0.00 0.00 72 1032.9
20260906023918 46 205 2.0 9.0 0.00 0.00 0.00 72 1032.7
20260906023908 46 207 3.0 9.0 0.00 0.00 0.00 72 1033.1
20260906023603 46 199 3.0 7.0 0.00 0.00 0.00 71 1032.8
20260906023517 46 193 3.0 7.0 0.00 0.00 0.00 71 1032.8
20260906023503 46 191 2.0 7.0 0.00 0.00 0.00 71 1033.0
20260906023403 46 186 4.0 7.0 0.00 0.00 0.00 71 1032.8
20260906023203 46 193 2.0 6.0 0.00 0.00 0.00 71 1032.8
20260906023103 46 202 3.0 6.0 0.00 0.00 0.00 71 1032.7
20260906023003 46 206 3.0 7.0 0.00 0.00 0.00 70 1032.7
20260906022920 46 205 2.0 7.0 0.00 0.00 0.00 70 1032.9
20260906022903 46 201 2.0 7.0 0.00 0.00 0.00 70 1032.9
20260906022805 46 196 2.0 7.0 0.00 0.00 0.00 70 1032.9
20260906022603 46 201 2.0 8.0 0.00 0.00 0.00 70 1032.9
20260906022503 46 195 4.0 8.0 0.00 0.00 0.00 70 1032.7
20260906022403 46 202 4.0 8.0 0.00 0.00 0.00 70 1032.7
20260906022306 46 202 2.0 8.0 0.00 0.00 0.00 69 1032.8
20260906022204 46 191 2.0 8.0 0.00 0.00 0.00 69 1032.8
20260906022117 46 184 4.0 8.0 0.00 0.00 0.00 69 1032.8
20260906022103 46 182 4.0 8.0 0.00 0.00 0.00 69 1032.8
20260906022023 46 179 4.0 7.0 0.00 0.00 0.00 69 1032.7
20260906022003 46 181 4.0 7.0 0.00 0.00 0.00 69 1032.7
20260906021823 46 163 3.0 7.0 0.00 0.00 0.00 69 1032.9
20260906021717 46 164 2.0 7.0 0.00 0.00 0.00 69 1032.8
20260906021703 46 165 2.0 7.0 0.00 0.00 0.00 69 1032.8
20260906021403 46 204 4.0 8.0 0.00 0.00 0.00 68 1032.8
20260906021303 46 224 3.0 8.0 0.00 0.00 0.00 68 1032.9
20260906021203 46 231 2.0 8.0 0.00 0.00 0.00 68 1032.8
20260906021103 46 228 2.0 8.0 0.00 0.00 0.00 68 1032.7
20260906020903 46 208 4.0 8.0 0.00 0.00 0.00 68 1032.5
20260906020803 46 200 2.0 7.0 0.00 0.00 0.00 68 1032.7
20260906020703 46 200 3.0 7.0 0.00 0.00 0.00 67 1032.5
20260906020603 46 198 4.0 7.0 0.00 0.00 0.00 67 1032.6
20260906020503 46 204 3.0 7.0 0.00 0.00 0.00 67 1032.8
20260906020303 46 212 3.0 7.0 0.00 0.00 0.00 67 1032.6
20260906020203 46 217 1.0 6.0 0.00 0.00 0.00 67 1032.7
20260906020103 46 221 2.0 6.0 0.00 0.00 0.00 67 1032.5
20260906020006 46 226 4.0 6.0 0.00 0.00 0.00 66 1032.6
20260906015903 46 221 2.0 7.0 0.00 0.00 0.00 66 1032.5
20260906015703 46 234 3.0 8.0 0.00 0.00 0.00 66 1032.6
20260906015603 46 235 2.0 8.0 0.00 0.00 0.00 66 1032.5
20260906015519 46 232 3.0 8.0 0.00 0.00 0.00 66 1032.4
20260906015503 46 230 4.0 8.0 0.00 0.00 0.00 66 1032.4
20260906015403 46 225 4.0 8.0 0.00 0.00 0.00 65 1032.4
20260906015117 46 201 2.0 6.0 0.00 0.00 0.00 65 1032.2
20260906015104 47 200 3.0 6.0 0.00 0.00 0.00 65 1032.3
20260906015004 46 196 2.0 6.0 0.00 0.00 0.00 65 1032.2
20260906014713 47 241 2.0 4.0 0.00 0.00 0.00 65 1032.4
20260906014603 47 247 2.0 4.0 0.00 0.00 0.00 64 1032.1
20260906014503 47 247 3.0 4.0 0.00 0.00 0.00 64 1032.5
20260906014403 47 242 3.0 6.0 0.00 0.00 0.00 64 1032.2
20260906014303 47 215 2.0 8.0 0.00 0.00 0.00 64 1032.3
20260906014117 47 219 2.0 8.0 0.00 0.00 0.00 64 1032.1
20260906014003 47 214 4.0 8.0 0.00 0.00 0.00 64 1032.0
20260906013803 47 216 2.0 7.0 0.00 0.00 0.00 64 1032.1
20260906013703 47 211 2.0 7.0 0.00 0.00 0.00 64 1032.2
20260906013510 47 217 2.0 7.0 0.00 0.00 0.00 64 1032.1
20260906013403 47 224 4.0 6.0 0.00 0.00 0.00 64 1032.3
20260906013204 47 245 2.0 7.0 0.00 0.00 0.00 64 1032.2
20260906013103 47 240 4.0 7.0 0.00 0.00 0.00 63 1032.0
20260906013003 47 237 3.0 7.0 0.00 0.00 0.00 63 1032.0
20260906012903 47 235 2.0 7.0 0.00 0.00 0.00 63 1032.0
20260906012803 47 230 3.0 7.0 0.00 0.00 0.00 63 1032.2
20260906012703 47 219 3.0 6.0 0.00 0.00 0.00 63 1032.0
20260906012603 47 224 4.0 6.0 0.00 0.00 0.00 63 1031.9
20260906012503 47 227 3.0 6.0 0.00 0.00 0.00 63 1032.0
20260906012403 47 212 2.0 6.0 0.00 0.00 0.00 63 1032.2
20260906012207 47 188 2.0 7.0 0.00 0.00 0.00 62 1032.1
20260906012117 47 193 3.0 7.0 0.00 0.00 0.00 62 1032.0
20260906012103 47 192 3.0 7.0 0.00 0.00 0.00 62 1032.0
20260906011818 47 218 2.0 7.0 0.00 0.00 0.00 62 1031.8
20260906011703 47 211 4.0 7.0 0.00 0.00 0.00 62 1031.9
20260906011503 47 201 2.0 9.0 0.00 0.00 0.00 61 1032.2
20260906011403 47 187 2.0 9.0 0.00 0.00 0.00 61 1031.9
20260906011317 47 178 4.0 9.0 0.00 0.00 0.00 61 1032.1
20260906011303 47 189 4.0 9.0 0.00 0.00 0.00 61 1032.1
20260906011203 48 205 4.0 9.0 0.00 0.00 0.00 61 1032.0
20260906011116 48 224 4.0 9.0 0.00 0.00 0.00 61 1031.9
20260906011003 48 214 4.0 6.0 0.00 0.00 0.00 61 1032.1
20260906010818 48 224 2.0 7.0 0.00 0.00 0.00 61 1031.9
20260906010803 48 225 2.0 7.0 0.00 0.00 0.00 61 1031.9
20260906010703 48 218 3.0 7.0 0.00 0.00 0.00 61 1031.9
20260906010303 48 188 2.0 6.0 0.00 0.00 0.00 60 1031.9
20260906010203 48 199 3.0 6.0 0.00 0.00 0.00 60 1031.8
20260906010103 48 203 2.0 6.0 0.00 0.00 0.00 60 1031.8
20260906010004 48 211 4.0 6.0 0.00 0.00 0.00 60 1031.6
20260906005903 48 236 3.0 7.0 0.00 0.00 0.00 60 1031.8
20260906005808 48 223 3.0 7.0 0.00 0.00 0.00 60 1031.9
20260906005703 48 209 4.0 7.0 0.00 0.00 0.00 60 1031.8
20260906005603 48 201 3.0 7.0 0.00 0.00 0.00 60 1031.5
20260906005503 48 210 2.0 7.0 0.00 0.00 0.00 60 1031.6
20260906005306 48 223 2.0 6.0 0.00 0.00 0.00 60 1031.8
20260906005203 48 223 3.0 6.0 0.00 0.00 0.00 60 1031.5
20260906005103 48 228 2.0 6.0 0.00 0.00 0.00 60 1031.6
20260906005017 48 219 2.0 6.0 0.00 0.00 0.00 60 1031.7
20260906004904 48 231 3.0 7.0 0.00 0.00 0.00 60 1031.5
20260906004717 48 232 2.0 7.0 0.00 0.00 0.00 59 1031.6
20260906004703 48 236 3.0 7.0 0.00 0.00 0.00 60 1031.5
20260906004603 48 234 2.0 7.0 0.00 0.00 0.00 59 1031.8
20260906004518 48 242 2.0 7.0 0.00 0.00 0.00 60 1031.5
20260906004404 48 234 3.0 7.0 0.00 0.00 0.00 60 1031.3
20260906004203 48 225 2.0 7.0 0.00 0.00 0.00 60 1031.4
20260906004103 48 221 2.0 7.0 0.00 0.00 0.00 59 1031.6
20260906004008 48 225 3.0 7.0 0.00 0.00 0.00 59 1031.1
20260906003903 48 220 2.0 4.0 0.00 0.00 0.00 59 1031.3
20260906003803 48 207 2.0 4.0 0.00 0.00 0.00 59 1031.4
20260906003603 48 206 2.0 4.0 0.00 0.00 0.00 60 1031.4
20260906003503 48 213 2.0 6.0 0.00 0.00 0.00 59 1031.3
20260906003418 48 223 2.0 6.0 0.00 0.00 0.00 59 1031.3
20260906003403 48 219 2.0 6.0 0.00 0.00 0.00 59 1031.3
20260906003303 48 223 2.0 6.0 0.00 0.00 0.00 59 1031.3
20260906003103 48 248 3.0 6.0 0.00 0.00 0.00 59 1031.2
20260906003003 48 254 3.0 6.0 0.00 0.00 0.00 59 1031.2
20260906002903 48 252 3.0 6.0 0.00 0.00 0.00 59 1031.1
20260906002703 48 239 4.0 8.0 0.00 0.00 0.00 59 1031.3
20260906002603 48 228 4.0 8.0 0.00 0.00 0.00 59 1031.1
20260906002503 48 219 2.0 9.0 0.00 0.00 0.00 59 1031.3
20260906002403 48 218 3.0 9.0 0.00 0.00 0.00 59 1030.9
20260906002305 48 221 2.0 9.0 0.00 0.00 0.00 59 1031.1
20260906002203 48 230 2.0 9.0 0.00 0.00 0.00 59 1031.2
20260906002118 48 231 3.0 9.0 0.00 0.00 0.00 59 1030.9
20260906002103 48 232 3.0 9.0 0.00 0.00 0.00 59 1030.9
20260906002003 48 238 5.0 9.0 0.00 0.00 0.00 59 1031.0
20260906001803 48 236 2.0 7.0 0.00 0.00 0.00 59 1030.8
20260906001703 48 239 3.0 7.0 0.00 0.00 0.00 59 1030.9
20260906001603 48 243 2.0 7.0 0.00 0.00 0.00 59 1031.0
20260906001518 48 247 3.0 7.0 0.00 0.00 0.00 59 1030.9
20260906001503 48 248 3.0 4.0 0.00 0.00 0.00 58 1031.0
20260906001403 48 254 3.0 7.0 0.00 0.00 0.00 58 1030.7
20260906001203 49 246 2.0 7.0 0.00 0.00 0.00 59 1030.9
20260906001103 49 248 3.0 7.0 0.00 0.00 0.00 58 1030.6
20260906001003 49 244 3.0 7.0 0.00 0.00 0.00 58 1030.9
20260906000903 49 239 4.0 7.0 0.00 0.00 0.00 58 1030.9
20260906000813 49 238 4.0 7.0 0.00 0.00 0.00 58 1030.9
20260906000718 49 249 4.0 7.0 0.00 0.00 0.00 58 1030.7
20260906000603 49 252 2.0 6.0 0.00 0.00 0.00 58 1030.8
20260906000403 49 244 3.0 7.0 0.00 0.00 0.00 58 1030.7
20260906000318 49 233 4.0 7.0 0.00 0.00 0.00 58 1030.6
20260906000304 49 234 3.0 7.0 0.00 0.00 0.00 58 1030.5
20260906000204 49 230 2.0 7.0 0.00 0.00 0.00 58 1030.5
20260906000003 49 203 3.0 7.0 0.00 0.00 0.00 58 1030.5
20260905235903 49 223 3.0 6.0 0.00 0.00 0.00 57 1030.6
20260905235803 49 245 2.0 4.0 0.00 0.00 0.00 58 1030.4
20260905235703 49 226 2.0 6.0 0.00 0.00 0.00 58 1030.5
20260905235617 49 223 1.0 6.0 0.00 0.00 0.00 58 1030.3
20260905235603 49 226 1.0 6.0 0.00 0.00 0.00 58 1030.3
20260905235504 49 231 2.0 6.0 0.00 0.00 0.00 57 1030.4
20260905235306 49 227 2.0 6.0 0.00 0.00 0.00 57 1030.7
20260905235204 49 231 3.0 7.0 0.00 0.00 0.00 57 1030.5
20260905235118 49 235 3.0 7.0 0.00 0.00 0.00 57 1030.4
20260905235103 49 235 2.0 7.0 0.00 0.00 0.00 57 1030.5
20260905235003 49 236 2.0 7.0 0.00 0.00 0.00 57 1030.3
20260905234917 49 235 2.0 7.0 0.00 0.00 0.00 57 1030.4
20260905234604 49 212 4.0 7.0 0.00 0.00 0.00 56 1030.3
20260905234503 49 200 4.0 7.0 0.00 0.00 0.00 56 1030.3
20260905234403 49 217 4.0 9.0 0.00 0.00 0.00 56 1030.3
20260905234303 49 208 4.0 9.0 0.00 0.00 0.00 56 1030.1
20260905234203 49 197 4.0 9.0 0.00 0.00 0.00 56 1030.2
20260905234103 49 210 4.0 9.0 0.00 0.00 0.00 56 1030.2
20260905234019 49 216 4.0 9.0 0.00 0.00 0.00 56 1030.4
20260905234003 49 215 4.0 9.0 0.00 0.00 0.00 56 1030.4
20260905233903 49 203 4.0 9.0 0.00 0.00 0.00 56 1030.2
20260905233706 49 202 3.0 7.0 0.00 0.00 0.00 56 1030.3
20260905233603 49 215 3.0 7.0 0.00 0.00 0.00 56 1030.2
20260905233503 49 201 3.0 7.0 0.00 0.00 0.00 56 1030.2
20260905233403 49 204 2.0 7.0 0.00 0.00 0.00 56 1030.3
20260905233303 49 217 4.0 7.0 0.00 0.00 0.00 55 1030.2
20260905233207 50 221 4.0 7.0 0.00 0.00 0.00 55 1030.1
20260905233104 50 211 4.0 7.0 0.00 0.00 0.00 55 1030.4
20260905233005 50 219 3.0 7.0 0.00 0.00 0.00 55 1030.4
20260905232903 50 222 2.0 7.0 0.00 0.00 0.00 55 1030.4
20260905232803 50 219 3.0 7.0 0.00 0.00 0.00 55 1030.1
20260905232703 50 214 4.0 6.0 0.00 0.00 0.00 55 1030.3
20260905232603 50 222 3.0 8.0 0.00 0.00 0.00 55 1030.2
20260905232503 50 229 3.0 8.0 0.00 0.00 0.00 55 1030.1
20260905232403 50 230 2.0 8.0 0.00 0.00 0.00 55 1030.3
20260905232317 50 229 3.0 8.0 0.00 0.00 0.00 55 1030.0
20260905232306 50 228 3.0 8.0 0.00 0.00 0.00 55 1030.3
20260905232203 50 231 4.0 8.0 0.00 0.00 0.00 55 1030.2
20260905232118 50 223 4.0 8.0 0.00 0.00 0.00 55 1030.1
20260905232003 50 220 4.0 8.0 0.00 0.00 0.00 55 1030.0
20260905231807 50 225 2.0 6.0 0.00 0.00 0.00 55 1029.8
20260905231703 50 226 2.0 6.0 0.00 0.00 0.00 55 1030.0
20260905231603 50 227 2.0 8.0 0.00 0.00 0.00 55 1029.9
20260905231503 50 229 3.0 8.0 0.00 0.00 0.00 55 1030.0
20260905231403 50 225 2.0 8.0 0.00 0.00 0.00 55 1029.9
20260905231317 50 231 2.0 8.0 0.00 0.00 0.00 54 1029.9
20260905231303 50 232 2.0 8.0 0.00 0.00 0.00 54 1029.9
20260905231204 50 228 3.0 8.0 0.00 0.00 0.00 54 1029.8
20260905231003 50 255 3.0 7.0 0.00 0.00 0.00 54 1030.1
20260905230903 50 254 3.0 8.0 0.00 0.00 0.00 54 1029.9
20260905230818 50 242 3.0 9.0 0.00 0.00 0.00 54 1030.0
20260905230806 50 239 3.0 9.0 0.00 0.00 0.00 54 1030.0
20260905230703 50 237 4.0 9.0 0.00 0.00 0.00 54 1029.8
20260905230503 50 225 4.0 9.0 0.00 0.00 0.00 53 1029.7
20260905230403 50 223 5.0 9.0 0.00 0.00 0.00 53 1030.0
20260905230303 50 223 4.0 9.0 0.00 0.00 0.00 53 1029.8
20260905230203 50 234 4.0 7.0 0.00 0.00 0.00 53 1030.0
20260905230103 50 218 3.0 8.0 0.00 0.00 0.00 53 1029.9
20260905230004 50 215 4.0 8.0 0.00 0.00 0.00 53 1029.9
20260905225921 50 208 2.0 8.0 0.00 0.00 0.00 53 1029.7
20260905225903 51 207 3.0 8.0 0.00 0.00 0.00 53 1030.0
20260905225803 51 206 2.0 8.0 0.00 0.00 0.00 53 1029.7
20260905225603 51 211 3.0 8.0 0.00 0.00 0.00 53 1029.8
20260905225503 51 215 4.0 8.0 0.00 0.00 0.00 52 1029.9
20260905225403 51 225 3.0 6.0 0.00 0.00 0.00 52 1029.7
20260905225305 51 223 3.0 6.0 0.00 0.00 0.00 52 1029.9
20260905225203 51 226 3.0 7.0 0.00 0.00 0.00 52 1029.9
20260905225118 51 218 3.0 9.0 0.00 0.00 0.00 52 1029.8
20260905225103 51 217 3.0 9.0 0.00 0.00 0.00 52 1029.9
20260905225003 51 215 2.0 9.0 0.00 0.00 0.00 52 1029.6
20260905224917 51 202 2.0 11.0 0.00 0.00 0.00 52 1029.7
20260905224803 51 201 2.0 11.0 0.00 0.00 0.00 52 1029.7
20260905224718 51 208 4.0 11.0 0.00 0.00 0.00 52 1029.6
20260905224603 51 214 5.0 11.0 0.00 0.00 0.00 51 1029.6
20260905224418 51 218 4.0 11.0 0.00 0.00 0.00 51 1029.6
20260905224403 51 226 4.0 11.0 0.00 0.00 0.00 51 1029.6
20260905224303 51 227 4.0 9.0 0.00 0.00 0.00 51 1029.7
20260905224217 51 215 4.0 11.0 0.00 0.00 0.00 51 1029.7
20260905224103 51 203 3.0 11.0 0.00 0.00 0.00 51 1029.3
20260905223903 51 210 4.0 11.0 0.00 0.00 0.00 51 1029.4
20260905223803 51 198 4.0 11.0 0.00 0.00 0.00 51 1029.5
20260905223703 51 208 4.0 11.0 0.00 0.00 0.00 51 1029.4
20260905223603 51 218 2.0 11.0 0.00 0.00 0.00 51 1029.4
20260905223503 51 215 4.0 11.0 0.00 0.00 0.00 50 1029.4
20260905223403 51 209 2.0 11.0 0.00 0.00 0.00 50 1029.6
20260905223303 51 224 4.0 11.0 0.00 0.00 0.00 50 1029.5
20260905223203 51 216 4.0 11.0 0.00 0.00 0.00 50 1029.7
20260905223103 51 222 4.0 11.0 0.00 0.00 0.00 50 1029.7
20260905223003 51 229 3.0 11.0 0.00 0.00 0.00 50 1029.7
20260905222903 51 235 4.0 11.0 0.00 0.00 0.00 49 1029.4
20260905222803 51 224 5.0 11.0 0.00 0.00 0.00 49 1029.6
20260905222703 52 227 4.0 11.0 0.00 0.00 0.00 49 1029.5
20260905222603 52 220 3.0 11.0 0.00 0.00 0.00 49 1029.5
20260905222517 52 225 2.0 11.0 0.00 0.00 0.00 49 1029.4
20260905222503 52 228 2.0 11.0 0.00 0.00 0.00 49 1029.4
20260905222403 52 220 2.0 11.0 0.00 0.00 0.00 49 1029.2
20260905222203 52 220 4.0 11.0 0.00 0.00 0.00 49 1029.3
20260905222103 52 225 4.0 11.0 0.00 0.00 0.00 49 1029.3
20260905222003 52 205 6.0 9.0 0.00 0.00 0.00 48 1029.3
20260905221917 52 222 5.0 9.0 0.00 0.00 0.00 48 1029.2
20260905221903 52 227 4.0 9.0 0.00 0.00 0.00 48 1029.4
20260905221803 52 239 3.0 9.0 0.00 0.00 0.00 48 1029.4
20260905221603 52 245 2.0 9.0 0.00 0.00 0.00 48 1029.1
20260905221503 52 263 4.0 9.0 0.00 0.00 0.00 48 1029.4
20260905221403 52 260 4.0 9.0 0.00 0.00 0.00 48 1029.3
20260905221303 52 267 4.0 11.0 0.00 0.00 0.00 48 1029.2
20260905221217 52 251 4.0 11.0 0.00 0.00 0.00 48 1029.4
20260905221103 52 236 4.0 11.0 0.00 0.00 0.00 48 1029.1
20260905220903 52 199 4.0 13.0 0.00 0.00 0.00 47 1029.2
20260905220803 52 202 4.0 13.0 0.00 0.00 0.00 47 1029.3
20260905220703 52 203 5.0 13.0 0.00 0.00 0.00 47 1029.0
20260905220603 52 191 4.0 13.0 0.00 0.00 0.00 47 1029.1
20260905220503 52 209 6.0 13.0 0.00 0.00 0.00 47 1029.1
20260905220303 52 242 4.0 13.0 0.00 0.00 0.00 47 1029.1
20260905220203 52 261 4.0 13.0 0.00 0.00 0.00 46 1029.1
20260905220103 52 254 5.0 13.0 0.00 0.00 0.00 46 1029.2
20260905220003 52 235 4.0 13.0 0.00 0.00 0.00 46 1029.0
20260905215921 52 217 6.0 13.0 0.00 0.00 0.00 46 1029.1
20260905215903 52 213 6.0 13.0 0.00 0.00 0.00 46 1028.9
20260905215803 52 207 5.0 9.0 0.00 0.00 0.00 46 1029.0
20260905215603 53 254 4.0 11.0 0.00 0.00 0.00 46 1028.8
20260905215503 53 262 4.0 11.0 0.00 0.00 0.00 46 1028.7
20260905215403 53 281 5.0 11.0 0.00 0.00 0.00 46 1028.7
20260905215306 53 288 4.0 11.0 0.00 0.00 0.00 46 1028.9
20260905215203 53 248 4.0 11.0 0.00 0.00 0.00 46 1028.9
20260905215103 53 211 5.0 11.0 0.00 0.00 0.00 46 1028.8
20260905215003 53 194 5.0 11.0 0.00 0.00 0.00 46 1028.8
20260905214903 53 188 4.0 11.0 0.00 0.00 0.00 46 1028.8
20260905214817 53 194 2.0 11.0 0.00 0.00 0.00 46 1028.7
20260905214803 53 188 2.0 11.0 0.00 0.00 0.00 46 1028.7
20260905214703 53 205 4.0 11.0 0.00 0.00 0.00 45 1028.8
20260905214618 53 217 4.0 11.0 0.00 0.00 0.00 45 1028.8
20260905214503 53 230 4.0 13.0 0.00 0.00 0.00 45 1028.8
20260905214303 53 247 4.0 13.0 0.00 0.00 0.00 45 1028.6
20260905214203 53 246 4.0 13.0 0.00 0.00 0.00 45 1028.7
20260905214103 53 219 3.0 13.0 0.00 0.00 0.00 45 1028.8
20260905214003 53 215 8.0 13.0 0.00 0.00 0.00 45 1028.7
20260905213918 53 216 6.0 13.0 0.00 0.00 0.00 45 1028.8
20260905213903 53 210 8.0 13.0 0.00 0.00 0.00 44 1028.7
20260905213803 53 217 4.0 11.0 0.00 0.00 0.00 45 1028.6
20260905213717 53 217 6.0 11.0 0.00 0.00 0.00 45 1028.5
20260905213603 53 218 3.0 14.0 0.00 0.00 0.00 45 1028.9
20260905213403 54 210 4.0 15.0 0.00 0.00 0.00 45 1028.6
20260905213303 53 214 4.0 15.0 0.00 0.00 0.00 45 1028.6
20260905213203 53 211 7.0 15.0 0.00 0.00 0.00 45 1028.5
20260905213103 53 217 7.0 15.0 0.00 0.00 0.00 45 1028.8
20260905213003 54 224 8.0 15.0 0.00 0.00 0.00 45 1028.8
20260905212903 54 223 4.0 15.0 0.00 0.00 0.00 45 1028.6
20260905212803 54 226 5.0 15.0 0.00 0.00 0.00 45 1028.7
20260905212703 54 220 7.0 16.0 0.00 0.00 0.00 44 1028.8
20260905212603 54 209 8.0 17.0 0.00 0.00 0.00 44 1028.6
20260905212517 54 201 4.0 17.0 0.00 0.00 0.00 44 1028.6
20260905212503 54 197 4.0 17.0 0.00 0.00 0.00 44 1028.6
20260905212403 54 176 4.0 17.0 0.00 0.00 0.00 44 1028.5
20260905212203 54 138 6.0 17.0 0.00 0.00 0.00 44 1028.7
20260905212105 54 115 7.0 17.0 0.00 0.00 0.00 43 1028.5
20260905212003 54 107 6.0 13.0 0.00 0.00 0.00 44 1028.4
20260905211903 54 131 5.0 13.0 0.00 0.00 0.00 44 1028.4
20260905211803 54 161 5.0 13.0 0.00 0.00 0.00 44 1028.5
20260905211717 54 191 4.0 13.0 0.00 0.00 0.00 44 1028.5
20260905211703 54 200 4.0 13.0 0.00 0.00 0.00 44 1028.5
20260905211603 54 206 6.0 13.0 0.00 0.00 0.00 44 1028.5
20260905211403 55 213 5.0 14.0 0.00 0.00 0.00 44 1028.4
20260905211303 54 228 3.0 14.0 0.00 0.00 0.00 44 1028.4
20260905211203 54 239 6.0 14.0 0.00 0.00 0.00 44 1028.1
20260905211103 54 235 8.0 14.0 0.00 0.00 0.00 43 1028.2
20260905211003 54 236 8.0 16.0 0.00 0.00 0.00 43 1028.3
20260905210903 55 240 5.0 16.0 0.00 0.00 0.00 43 1028.4
20260905210803 55 218 4.0 16.0 0.00 0.00 0.00 44 1028.3
20260905210703 54 188 8.0 17.0 0.00 0.00 0.00 44 1028.5
20260905210603 54 228 8.0 17.0 0.00 0.00 0.00 44 1028.4
20260905210503 55 238 7.0 17.0 0.00 0.00 0.00 43 1028.3
20260905210403 55 244 8.0 17.0 0.00 0.00 0.00 43 1028.3
20260905210303 55 257 9.0 17.0 0.00 0.00 0.00 43 1028.2
20260905210203 55 250 7.0 17.0 0.00 0.00 0.00 44 1028.5
20260905210103 55 248 9.0 17.0 0.00 0.00 0.00 43 1028.3
20260905210004 55 244 8.0 16.0 0.00 0.00 0.00 43 1028.1
20260905205903 55 241 6.0 15.0 0.00 0.00 0.00 43 1028.2
20260905205803 55 224 8.0 15.0 0.00 0.00 0.00 43 1028.2
20260905205717 55 218 8.0 14.0 0.00 0.00 0.00 43 1028.0
20260905205703 55 215 8.0 14.0 0.00 0.00 0.00 43 1028.0
20260905205603 55 218 6.0 14.0 0.00 0.00 0.00 43 1028.1
20260905205403 56 204 4.0 16.0 0.00 0.00 0.00 43 1028.3
20260905205306 55 207 4.0 16.0 0.00 0.00 0.00 42 1028.2
20260905205203 55 212 6.0 16.0 0.00 0.00 0.00 42 1028.1
20260905205103 55 206 7.0 18.0 0.00 0.00 0.00 43 1028.3
20260905205003 55 213 8.0 18.0 0.00 0.00 0.00 43 1028.3
20260905204903 55 227 8.0 18.0 0.00 0.00 0.00 43 1028.3
20260905204703 55 227 9.0 18.0 0.00 0.00 0.00 42 1028.1
20260905204603 56 234 8.0 20.0 0.00 0.00 0.00 42 1028.1
20260905204516 56 234 7.0 20.0 0.00 0.00 0.00 42 1028.3
20260905204503 56 230 7.0 20.0 0.00 0.00 0.00 42 1028.3
20260905204403 56 237 8.0 20.0 0.00 0.00 0.00 42 1028.0
20260905204203 56 241 10.0 20.0 0.00 0.00 0.00 42 1028.0
20260905204103 56 251 8.0 20.0 0.00 0.00 0.00 41 1028.1
20260905204017 56 250 5.0 15.0 0.00 0.00 0.00 41 1028.0
20260905204003 56 252 5.0 15.0 0.00 0.00 0.00 41 1028.0
20260905203918 56 232 8.0 15.0 0.00 0.00 0.00 41 1028.1
20260905203903 56 224 6.0 15.0 0.00 0.00 0.00 41 1028.0
20260905203817 56 217 7.0 15.0 0.00 0.00 0.00 41 1028.1
20260905203503 56 210 7.0 16.0 0.00 0.00 0.00 41 1027.9
20260905203403 56 218 7.0 16.0 0.00 0.00 0.00 41 1028.0
20260905203303 56 223 5.0 16.0 0.00 0.00 0.00 41 1028.0
20260905203203 56 213 6.0 16.0 0.00 0.00 0.00 41 1027.8
20260905203103 56 214 11.0 16.0 0.00 0.00 0.00 41 1027.8
20260905203003 56 205 9.0 16.0 0.00 0.00 0.00 41 1027.8
20260905202903 56 208 5.0 16.0 0.00 0.00 0.00 41 1027.7
20260905202819 56 200 6.0 16.0 0.00 0.00 0.00 40 1028.0
20260905202803 56 195 6.0 16.0 0.00 0.00 0.00 40 1028.0
20260905202717 56 193 7.0 16.0 0.00 0.00 0.00 40 1027.9
20260905202703 56 200 7.0 16.0 0.00 0.00 0.00 40 1027.8
20260905202403 56 215 9.0 14.0 0.00 0.00 0.00 40 1027.7
20260905202317 57 234 6.0 13.0 0.00 0.00 0.00 40 1027.7
20260905202306 57 234 5.0 13.0 0.00 0.00 0.00 40 1027.8
20260905202203 57 233 7.0 13.0 0.00 0.00 0.00 39 1027.8
20260905202117 57 214 7.0 13.0 0.00 0.00 0.00 39 1027.8
20260905202003 57 202 5.0 13.0 0.00 0.00 0.00 39 1027.8
20260905201918 57 219 5.0 11.0 0.00 0.00 0.00 39 1027.7
20260905201803 57 184 5.0 15.0 0.00 0.00 0.00 39 1027.5
20260905201603 56 230 7.0 15.0 0.00 0.00 0.00 38 1027.4
20260905201518 57 233 6.0 15.0 0.00 0.00 0.00 39 1027.7
20260905201503 57 237 5.0 15.0 0.00 0.00 0.00 39 1027.7
20260905201317 57 220 9.0 16.0 0.00 0.00 0.00 39 1027.7
20260905201203 57 196 4.0 16.0 0.00 0.00 0.00 39 1027.6
20260905201003 57 189 6.0 16.0 0.00 0.00 0.00 38 1027.4
20260905200903 57 199 8.0 16.0 0.00 0.00 0.00 38 1027.6
20260905200803 57 213 9.0 16.0 0.00 0.00 0.00 38 1027.6
20260905200703 57 204 6.0 16.0 0.00 0.00 0.00 38 1027.6
20260905200603 57 207 5.0 16.0 0.00 0.00 0.00 38 1027.5
20260905200503 57 207 7.0 16.0 0.00 0.00 0.00 38 1027.7
20260905200417 57 204 6.0 16.0 0.00 0.00 0.00 38 1027.8
20260905200303 57 202 8.0 16.0 0.00 0.00 0.00 38 1027.7
20260905200218 57 224 8.0 15.0 0.00 0.00 0.00 38 1027.6
20260905195903 58 235 4.0 17.0 0.00 0.00 0.00 37 1027.5
20260905195803 57 239 8.0 17.0 0.00 0.00 0.00 37 1027.4
20260905195603 58 239 7.0 17.0 0.00 0.00 0.00 36 1027.4
20260905195503 57 234 10.0 18.0 0.00 0.00 0.00 35 1027.4
20260905195403 57 227 10.0 18.0 0.00 0.00 0.00 35 1027.6
20260905195306 57 230 6.0 18.0 0.00 0.00 0.00 35 1027.4
20260905195203 57 227 5.0 18.0 0.00 0.00 0.00 34 1027.3
20260905195103 57 233 8.0 18.0 0.00 0.00 0.00 34 1027.6
20260905195004 57 238 5.0 15.0 0.00 0.00 0.00 34 1027.5
20260905194903 57 259 8.0 15.0 0.00 0.00 0.00 34 1027.5
20260905194803 57 249 8.0 15.0 0.00 0.00 0.00 34 1027.6
20260905194703 58 245 5.0 13.0 0.00 0.00 0.00 34 1027.4
20260905194603 57 233 7.0 13.0 0.00 0.00 0.00 34 1027.2
20260905194503 57 222 4.0 15.0 0.00 0.00 0.00 34 1027.5
20260905194417 57 220 6.0 15.0 0.00 0.00 0.00 34 1027.3
20260905194403 57 217 6.0 15.0 0.00 0.00 0.00 34 1027.3
20260905194303 57 215 8.0 15.0 0.00 0.00 0.00 34 1027.4
20260905194103 58 229 7.0 15.0 0.00 0.00 0.00 34 1027.5
20260905194003 58 242 8.0 15.0 0.00 0.00 0.00 34 1027.4
20260905193903 58 245 6.0 21.0 0.00 0.00 0.00 33 1027.2
20260905193803 58 250 4.0 21.0 0.00 0.00 0.00 34 1027.3
20260905193703 57 243 5.0 21.0 0.00 0.00 0.00 34 1027.3
20260905193603 57 238 8.0 21.0 0.00 0.00 0.00 33 1027.1
20260905193503 57 230 8.0 21.0 0.00 0.00 0.00 33 1027.5
20260905193403 57 232 9.0 21.0 0.00 0.00 0.00 34 1027.4
20260905193303 57 230 9.0 16.0 0.00 0.00 0.00 34 1027.4
20260905193203 57 241 8.0 16.0 0.00 0.00 0.00 33 1027.3
20260905193103 57 265 10.0 16.0 0.00 0.00 0.00 33 1027.4
20260905193003 58 278 8.0 16.0 0.00 0.00 0.00 34 1027.4
20260905192903 58 273 7.0 16.0 0.00 0.00 0.00 35 1027.3
20260905192818 58 277 8.0 16.0 0.00 0.00 0.00 35 1027.6
20260905192703 57 277 7.0 14.0 0.00 0.00 0.00 37 1027.2
20260905192503 58 234 4.0 13.0 0.00 0.00 0.00 38 1027.4
20260905192405 58 236 4.0 13.0 0.00 0.00 0.00 38 1027.4
20260905192306 57 221 8.0 13.0 0.00 0.00 0.00 39 1027.4
20260905192203 57 215 7.0 13.0 0.00 0.00 0.00 38 1027.3
20260905192103 58 203 8.0 13.0 0.00 0.00 0.00 39 1027.3
20260905192003 58 216 8.0 13.0 0.00 0.00 0.00 39 1027.4
20260905191903 58 228 6.0 16.0 0.00 0.00 0.00 39 1027.3
20260905191803 58 241 4.0 16.0 0.00 0.00 0.00 40 1027.4
20260905191703 57 250 5.0 16.0 0.00 0.00 0.00 40 1027.3
20260905191603 57 246 4.0 16.0 0.00 0.00 0.00 41 1027.3
20260905191518 57 243 6.0 16.0 0.00 0.00 0.00 41 1027.2
20260905191503 57 245 8.0 16.0 0.00 0.00 0.00 41 1027.2
20260905191403 58 231 5.0 16.0 0.00 0.00 0.00 42 1027.3
20260905191203 57 198 9.0 16.0 0.00 0.00 0.00 43 1027.2
20260905191103 57 209 10.0 16.0 0.00 0.00 0.00 43 1027.1
20260905191003 58 212 5.0 16.0 0.00 0.00 0.00 43 1027.2
20260905190905 58 211 6.0 16.0 0.00 0.00 0.00 43 1027.2
20260905190803 58 224 8.0 16.0 0.00 0.00 0.00 43 1027.0
20260905190719 57 231 8.0 16.0 0.00 0.00 0.00 44 1027.2
20260905190703 58 235 5.0 16.0 0.00 0.00 0.00 44 1027.1
20260905190603 57 234 6.0 16.0 0.00 0.00 0.00 44 1027.3
20260905190518 57 230 10.0 16.0 0.00 0.00 0.00 44 1027.3
20260905190403 57 239 7.0 16.0 0.00 0.00 0.00 44 1027.2
20260905190203 57 241 6.0 14.0 0.00 0.00 0.00 44 1027.2
20260905190103 57 237 7.0 14.0 0.00 0.00 0.00 44 1026.9
20260905185921 57 227 8.0 14.0 0.00 0.00 0.00 44 1027.0
20260905185903 58 229 6.0 14.0 0.00 0.00 0.00 44 1027.1
20260905185803 57 240 9.0 14.0 0.00 0.00 0.00 44 1027.1
20260905185603 58 263 6.0 14.0 0.00 0.00 0.00 43 1027.0
20260905185503 57 271 6.0 16.0 0.00 0.00 0.00 43 1027.0
20260905185403 57 271 4.0 16.0 0.00 0.00 0.00 44 1027.1
20260905185203 57 250 7.0 16.0 0.00 0.00 0.00 44 1027.1
20260905185103 57 233 8.0 16.0 0.00 0.00 0.00 44 1027.1
20260905185003 57 220 7.0 16.0 0.00 0.00 0.00 44 1027.0
20260905184903 57 212 7.0 16.0 0.00 0.00 0.00 44 1026.9
20260905184803 57 190 7.0 16.0 0.00 0.00 0.00 44 1027.0
20260905184703 57 191 8.0 16.0 0.00 0.00 0.00 44 1027.2
20260905184603 58 193 7.0 16.0 0.00 0.00 0.00 44 1027.0
20260905184503 57 174 8.0 16.0 0.00 0.00 0.00 44 1027.1
20260905184403 58 177 5.0 13.0 0.00 0.00 0.00 44 1026.8
20260905184303 58 175 8.0 20.0 0.00 0.00 0.00 44 1027.2
20260905184203 58 176 5.0 20.0 0.00 0.00 0.00 44 1027.0
20260905184103 58 173 6.0 20.0 0.00 0.00 0.00 44 1027.2
20260905184003 58 190 6.0 20.0 0.00 0.00 0.00 45 1027.0
20260905183903 57 198 8.0 20.0 0.00 0.00 0.00 45 1027.2
20260905183804 57 215 8.0 20.0 0.00 0.00 0.00 44 1027.1
20260905183703 57 237 5.0 15.0 0.00 0.00 0.00 44 1027.0
20260905183603 58 244 5.0 15.0 0.00 0.00 0.00 44 1026.8
20260905183503 58 252 6.0 15.0 0.00 0.00 0.00 44 1027.1
20260905183403 58 243 6.0 15.0 0.00 0.00 0.00 44 1027.2
20260905183311 58 218 4.0 15.0 0.00 0.00 0.00 44 1027.0
20260905183217 58 219 8.0 15.0 0.00 0.00 0.00 43 1027.1
20260905183118 58 228 6.0 14.0 0.00 0.00 0.00 42 1027.1
20260905183103 58 219 5.0 14.0 0.00 0.00 0.00 43 1027.0
20260905182803 58 220 7.0 13.0 0.00 0.00 0.00 43 1027.0
20260905182703 58 206 5.0 14.0 0.00 0.00 0.00 43 1026.8
20260905182603 58 195 6.0 14.0 0.00 0.00 0.00 43 1027.0
20260905182518 58 207 8.0 14.0 0.00 0.00 0.00 43 1027.0
20260905182503 58 206 8.0 14.0 0.00 0.00 0.00 43 1027.0
20260905182418 58 206 4.0 14.0 0.00 0.00 0.00 43 1026.8
20260905182403 58 209 4.0 14.0 0.00 0.00 0.00 43 1026.8
20260905182217 58 221 7.0 13.0 0.00 0.00 0.00 43 1027.0
20260905182103 58 237 7.0 13.0 0.00 0.00 0.00 42 1027.1
20260905181903 59 227 8.0 13.0 0.00 0.00 0.00 41 1027.1
20260905181804 60 230 4.0 9.0 0.00 0.00 0.00 41 1026.9
20260905181503 60 232 3.0 13.0 0.00 0.00 0.00 42 1026.9
20260905181403 59 239 5.0 13.0 0.00 0.00 0.00 43 1027.1
20260905181303 59 245 4.0 13.0 0.00 0.00 0.00 42 1027.0
20260905181203 59 257 4.0 13.0 0.00 0.00 0.00 43 1027.0
20260905181103 58 239 8.0 14.0 0.00 0.00 0.00 43 1027.1
20260905181018 59 249 4.0 14.0 0.00 0.00 0.00 43 1027.2
20260905181003 59 248 4.0 14.0 0.00 0.00 0.00 43 1027.2
20260905180903 58 229 5.0 14.0 0.00 0.00 0.00 43 1027.2
20260905180717 58 214 6.0 14.0 0.00 0.00 0.00 43 1027.3
20260905180703 58 204 8.0 14.0 0.00 0.00 0.00 42 1027.0
20260905180618 59 205 2.0 11.0 0.00 0.00 0.00 42 1027.1
20260905180603 59 207 2.0 11.0 0.00 0.00 0.00 42 1027.1
20260905180303 58 160 6.0 15.0 0.00 0.00 0.00 43 1027.1
20260905180203 57 163 8.0 15.0 0.00 0.00 0.00 43 1027.2
20260905180104 58 185 8.0 15.0 0.00 0.00 0.00 43 1027.0
20260905180003 58 215 6.0 15.0 0.00 0.00 0.00 43 1027.1
20260905175903 58 243 8.0 15.0 0.00 0.00 0.00 42 1027.3
20260905175803 58 242 6.0 15.0 0.00 0.00 0.00 43 1027.0
20260905175703 58 223 6.0 15.0 0.00 0.00 0.00 43 1027.3
20260905175603 58 224 6.0 15.0 0.00 0.00 0.00 43 1027.1
20260905175503 58 215 5.0 15.0 0.00 0.00 0.00 42 1027.5
20260905175417 58 202 5.0 15.0 0.00 0.00 0.00 43 1027.2
20260905175403 58 201 5.0 15.0 0.00 0.00 0.00 43 1027.2
20260905175306 58 205 7.0 15.0 0.00 0.00 0.00 42 1027.3
20260905175103 59 182 4.0 18.0 0.00 0.00 0.00 42 1027.0
20260905175003 58 178 6.0 18.0 0.00 0.00 0.00 42 1027.2
20260905174903 58 174 8.0 18.0 0.00 0.00 0.00 41 1027.2
20260905174803 58 176 5.0 18.0 0.00 0.00 0.00 42 1027.2
20260905174703 58 191 6.0 20.0 0.00 0.00 0.00 42 1027.3
20260905174603 58 182 5.0 20.0 0.00 0.00 0.00 42 1027.2
20260905174503 58 179 6.0 20.0 0.00 0.00 0.00 43 1027.2
20260905174403 58 169 8.0 20.0 0.00 0.00 0.00 43 1027.2
20260905174303 57 151 8.0 20.0 0.00 0.00 0.00 43 1027.1
20260905174203 58 125 9.0 20.0 0.00 0.00 0.00 43 1027.2
20260905174103 58 144 4.0 16.0 0.00 0.00 0.00 43 1027.3
20260905174003 58 163 4.0 16.0 0.00 0.00 0.00 44 1027.5
20260905173903 57 203 4.0 16.0 0.00 0.00 0.00 45 1027.1
20260905173817 57 231 4.0 16.0 0.00 0.00 0.00 45 1027.4
20260905173803 57 233 4.0 16.0 0.00 0.00 0.00 45 1027.4
20260905173703 56 223 7.0 16.0 0.00 0.00 0.00 45 1027.2
20260905173618 57 224 9.0 16.0 0.00 0.00 0.00 45 1027.5
20260905173517 57 214 7.0 16.0 0.00 0.00 0.00 45 1027.4
20260905173503 57 213 4.0 16.0 0.00 0.00 0.00 45 1027.4
20260905173203 58 169 3.0 8.0 0.00 0.00 0.00 44 1027.6
20260905173103 58 210 2.0 11.0 0.00 0.00 0.00 45 1027.4
20260905173003 58 212 4.0 11.0 0.00 0.00 0.00 45 1027.4
20260905172903 58 218 3.0 16.0 0.00 0.00 0.00 45 1027.4
20260905172803 58 220 4.0 16.0 0.00 0.00 0.00 45 1027.5
20260905172717 57 229 4.0 16.0 0.00 0.00 0.00 45 1027.3
20260905172703 57 229 8.0 16.0 0.00 0.00 0.00 45 1027.6
20260905172603 57 232 5.0 16.0 0.00 0.00 0.00 45 1027.8
20260905172403 57 172 5.0 17.0 0.00 0.00 0.00 46 1027.6
20260905172305 57 173 7.0 20.0 0.00 0.00 0.00 46 1027.7
20260905172203 57 183 7.0 20.0 0.00 0.00 0.00 46 1027.7
20260905172103 57 173 7.0 20.0 0.00 0.00 0.00 46 1027.8
20260905172003 57 165 11.0 20.0 0.00 0.00 0.00 46 1027.7
20260905171918 57 185 11.0 20.0 0.00 0.00 0.00 46 1027.9
20260905171903 58 194 6.0 20.0 0.00 0.00 0.00 46 1027.7
20260905171803 58 192 7.0 20.0 0.00 0.00 0.00 46 1027.7
20260905171717 58 169 5.0 11.0 0.00 0.00 0.00 46 1027.6
20260905171618 58 166 4.0 11.0 0.00 0.00 0.00 46 1027.5
20260905171603 58 171 4.0 11.0 0.00 0.00 0.00 46 1027.5
20260905171303 58 175 4.0 16.0 0.00 0.00 0.00 46 1027.6
20260905171203 58 174 5.0 16.0 0.00 0.00 0.00 47 1027.8
20260905171103 58 175 6.0 16.0 0.00 0.00 0.00 47 1027.7
20260905171017 58 197 5.0 16.0 0.00 0.00 0.00 47 1027.8
20260905170903 57 207 7.0 16.0 0.00 0.00 0.00 47 1027.7
20260905170703 57 231 7.0 15.0 0.00 0.00 0.00 48 1027.8
20260905170603 57 228 8.0 16.0 0.00 0.00 0.00 48 1027.9
20260905170503 57 207 6.0 16.0 0.00 0.00 0.00 47 1028.0
20260905170403 57 202 6.0 16.0 0.00 0.00 0.00 47 1027.9
20260905170303 57 199 6.0 16.0 0.00 0.00 0.00 47 1027.6
20260905170203 57 190 6.0 16.0 0.00 0.00 0.00 48 1027.6
20260905170103 57 196 8.0 16.0 0.00 0.00 0.00 47 1027.9
20260905170003 57 206 8.0 15.0 0.00 0.00 0.00 47 1027.9
20260905165903 57 221 4.0 14.0 0.00 0.00 0.00 47 1027.6
20260905165703 57 227 4.0 14.0 0.00 0.00 0.00 47 1027.9
20260905165618 58 219 5.0 14.0 0.00 0.00 0.00 46 1027.9
20260905165604 58 212 5.0 14.0 0.00 0.00 0.00 46 1027.9
20260905165503 57 204 6.0 15.0 0.00 0.00 0.00 46 1027.7
20260905165417 58 214 4.0 16.0 0.00 0.00 0.00 46 1027.9
20260905165306 57 219 5.0 16.0 0.00 0.00 0.00 46 1028.0
20260905165103 56 210 8.0 16.0 0.00 0.00 0.00 47 1028.0
20260905165019 57 207 8.0 16.0 0.00 0.00 0.00 47 1027.8
20260905165003 57 202 8.0 16.0 0.00 0.00 0.00 47 1027.8
20260905164903 57 195 8.0 16.0 0.00 0.00 0.00 47 1028.1
20260905164703 57 216 8.0 15.0 0.00 0.00 0.00 47 1027.7
20260905164604 58 239 4.0 18.0 0.00 0.00 0.00 48 1027.7
20260905164503 57 246 7.0 18.0 0.00 0.00 0.00 48 1027.8
20260905164417 57 245 7.0 18.0 0.00 0.00 0.00 48 1028.0
20260905164403 57 243 7.0 18.0 0.00 0.00 0.00 48 1028.0
20260905164303 57 240 8.0 18.0 0.00 0.00 0.00 48 1027.9
20260905164218 57 238 8.0 18.0 0.00 0.00 0.00 48 1027.9
20260905164119 57 225 10.0 18.0 0.00 0.00 0.00 47 1028.0
20260905164103 57 218 10.0 18.0 0.00 0.00 0.00 47 1028.0
20260905163803 57 213 10.0 16.0 0.00 0.00 0.00 48 1027.8
20260905163703 58 213 6.0 16.0 0.00 0.00 0.00 48 1027.9
20260905163603 58 211 7.0 16.0 0.00 0.00 0.00 48 1027.9
20260905163503 57 213 8.0 16.0 0.00 0.00 0.00 49 1027.9
20260905163317 57 184 8.0 16.0 0.00 0.00 0.00 48 1028.0
20260905163303 57 181 8.0 16.0 0.00 0.00 0.00 48 1028.0
20260905163203 57 174 8.0 11.0 0.00 0.00 0.00 48 1028.1
20260905163003 58 171 5.0 14.0 0.00 0.00 0.00 49 1027.7
20260905162903 58 185 5.0 14.0 0.00 0.00 0.00 49 1027.9
20260905162803 58 203 4.0 14.0 0.00 0.00 0.00 49 1027.9
20260905162703 57 218 5.0 14.0 0.00 0.00 0.00 49 1028.1
20260905162618 57 232 6.0 14.0 0.00 0.00 0.00 49 1028.0
20260905162603 57 236 6.0 14.0 0.00 0.00 0.00 49 1028.0
20260905162503 57 261 7.0 16.0 0.00 0.00 0.00 49 1027.9
20260905162305 57 245 7.0 16.0 0.00 0.00 0.00 50 1028.1
20260905162203 57 239 7.0 16.0 0.00 0.00 0.00 49 1028.0
20260905162103 57 240 7.0 16.0 0.00 0.00 0.00 50 1028.0
20260905162003 57 212 9.0 16.0 0.00 0.00 0.00 50 1028.0
20260905161903 58 192 5.0 13.0 0.00 0.00 0.00 50 1027.8
20260905161803 58 170 7.0 16.0 0.00 0.00 0.00 49 1028.0
20260905161703 58 177 4.0 16.0 0.00 0.00 0.00 50 1028.0
20260905161603 58 177 4.0 16.0 0.00 0.00 0.00 50 1028.2
20260905161503 57 195 6.0 16.0 0.00 0.00 0.00 51 1027.9
20260905161417 57 207 6.0 16.0 0.00 0.00 0.00 51 1028.0
20260905161403 57 212 6.0 16.0 0.00 0.00 0.00 51 1028.0
20260905161303 57 219 8.0 16.0 0.00 0.00 0.00 51 1027.9
20260905161103 57 224 6.0 16.0 0.00 0.00 0.00 52 1028.1
20260905161003 57 232 6.0 14.0 0.00 0.00 0.00 52 1028.0
20260905160918 57 235 8.0 14.0 0.00 0.00 0.00 53 1028.0
20260905160903 57 230 8.0 14.0 0.00 0.00 0.00 53 1028.0
20260905160818 57 217 8.0 14.0 0.00 0.00 0.00 52 1028.0
20260905160803 57 211 8.0 14.0 0.00 0.00 0.00 52 1028.0
20260905160503 56 186 8.0 14.0 0.00 0.00 0.00 53 1027.9
20260905160403 56 228 7.0 14.0 0.00 0.00 0.00 54 1028.0
20260905160303 57 254 7.0 14.0 0.00 0.00 0.00 53 1027.9
20260905160203 57 209 6.0 14.0 0.00 0.00 0.00 53 1027.9
20260905160003 57 236 4.0 14.0 0.00 0.00 0.00 54 1027.9
20260905155903 56 200 7.0 15.0 0.00 0.00 0.00 55 1028.0
20260905155803 56 207 6.0 15.0 0.00 0.00 0.00 55 1027.9
20260905155703 56 226 7.0 15.0 0.00 0.00 0.00 55 1028.0
20260905155604 56 224 7.0 15.0 0.00 0.00 0.00 55 1027.8
20260905155417 56 222 7.0 15.0 0.00 0.00 0.00 55 1028.0
20260905155403 56 217 7.0 15.0 0.00 0.00 0.00 55 1028.0
20260905155306 56 200 8.0 15.0 0.00 0.00 0.00 56 1028.0
20260905155103 57 213 5.0 13.0 0.00 0.00 0.00 55 1028.0
20260905155003 57 219 6.0 13.0 0.00 0.00 0.00 55 1027.9
20260905154917 56 235 7.0 13.0 0.00 0.00 0.00 55 1027.8
20260905154903 56 241 7.0 13.0 0.00 0.00 0.00 55 1027.8
20260905154803 57 252 7.0 13.0 0.00 0.00 0.00 54 1027.9
20260905154603 57 242 6.0 14.0 0.00 0.00 0.00 54 1027.7
20260905154503 58 242 4.0 14.0 0.00 0.00 0.00 55 1027.7
20260905154407 57 229 5.0 14.0 0.00 0.00 0.00 55 1027.7
20260905154303 57 249 5.0 16.0 0.00 0.00 0.00 55 1027.8
20260905154203 57 248 4.0 16.0 0.00 0.00 0.00 56 1027.9
20260905154103 57 248 8.0 16.0 0.00 0.00 0.00 55 1027.9
20260905154003 57 233 4.0 16.0 0.00 0.00 0.00 55 1027.9
20260905153913 57 231 4.0 16.0 0.00 0.00 0.00 56 1027.7
20260905153818 57 192 7.0 15.0 0.00 0.00 0.00 55 1027.6
20260905153803 57 181 7.0 15.0 0.00 0.00 0.00 55 1027.6
20260905153518 57 182 4.0 11.0 0.00 0.00 0.00 57 1027.8
20260905153503 57 176 4.0 13.0 0.00 0.00 0.00 58 1027.9
20260905153403 57 173 5.0 13.0 0.00 0.00 0.00 57 1027.9
20260905153203 57 169 2.0 14.0 0.00 0.00 0.00 58 1028.0
20260905153103 56 159 5.0 14.0 0.00 0.00 0.00 58 1027.9
20260905153003 56 159 7.0 14.0 0.00 0.00 0.00 58 1027.9
20260905152903 56 145 6.0 14.0 0.00 0.00 0.00 57 1028.0
20260905152803 56 144 5.0 14.0 0.00 0.00 0.00 57 1027.9
20260905152703 57 199 4.0 15.0 0.00 0.00 0.00 57 1027.8
20260905152617 57 232 6.0 15.0 0.00 0.00 0.00 58 1027.9
20260905152603 57 229 6.0 15.0 0.00 0.00 0.00 58 1027.9
20260905152503 57 220 4.0 15.0 0.00 0.00 0.00 58 1028.0
20260905152306 56 241 3.0 15.0 0.00 0.00 0.00 60 1028.1
20260905152218 55 241 8.0 15.0 0.00 0.00 0.00 60 1028.0
20260905152203 55 238 8.0 15.0 0.00 0.00 0.00 60 1028.0
20260905152103 56 210 6.0 14.0 0.00 0.00 0.00 60 1027.9
20260905151903 56 209 5.0 20.0 0.00 0.00 0.00 60 1028.2
20260905151803 56 229 8.0 20.0 0.00 0.00 0.00 60 1028.0
20260905151703 56 222 5.0 20.0 0.00 0.00 0.00 60 1028.2
20260905151603 55 232 4.0 20.0 0.00 0.00 0.00 61 1028.0
20260905151506 55 233 9.0 20.0 0.00 0.00 0.00 61 1028.2
20260905151403 55 224 10.0 20.0 0.00 0.00 0.00 61 1028.1
20260905151303 56 212 8.0 14.0 0.00 0.00 0.00 61 1028.1
20260905151218 56 201 4.0 15.0 0.00 0.00 0.00 62 1028.2
20260905151203 56 195 4.0 15.0 0.00 0.00 0.00 62 1028.2
20260905151103 56 185 7.0 15.0 0.00 0.00 0.00 61 1028.1
20260905151017 56 192 6.0 15.0 0.00 0.00 0.00 61 1028.2
20260905150903 56 225 4.0 15.0 0.00 0.00 0.00 62 1027.9
20260905150603 55 233 7.0 13.0 0.00 0.00 0.00 63 1028.2
20260905150503 55 215 4.0 11.0 0.00 0.00 0.00 63 1028.2
20260905150403 55 207 5.0 11.0 0.00 0.00 0.00 62 1028.0
20260905150303 55 212 4.0 11.0 0.00 0.00 0.00 63 1028.2
20260905150203 55 209 4.0 11.0 0.00 0.00 0.00 63 1028.2
20260905150004 55 214 6.0 16.0 0.00 0.00 0.00 63 1028.2
20260905145903 55 234 6.0 16.0 0.00 0.00 0.00 63 1028.2
20260905145803 55 235 4.0 16.0 0.00 0.00 0.00 63 1028.2
20260905145703 54 232 7.0 16.0 0.00 0.00 0.00 63 1028.2
20260905145603 54 220 4.0 16.0 0.00 0.00 0.00 64 1028.3
20260905145503 55 206 8.0 14.0 0.00 0.00 0.00 62 1028.4
20260905145403 55 196 4.0 14.0 0.00 0.00 0.00 62 1028.2
20260905145306 55 180 7.0 14.0 0.00 0.00 0.00 63 1028.1
20260905145203 55 177 4.0 14.0 0.00 0.00 0.00 64 1028.1
20260905145118 55 192 5.0 14.0 0.00 0.00 0.00 64 1028.3
20260905145103 55 192 6.0 14.0 0.00 0.00 0.00 63 1028.4
20260905145017 55 200 7.0 14.0 0.00 0.00 0.00 63 1028.3
20260905145003 55 202 7.0 14.0 0.00 0.00 0.00 63 1028.3
20260905144703 56 190 3.0 13.0 0.00 0.00 0.00 64 1028.4
20260905144617 55 188 4.0 13.0 0.00 0.00 0.00 63 1028.1
20260905144603 55 192 4.0 13.0 0.00 0.00 0.00 63 1028.1
20260905144418 55 222 4.0 13.0 0.00 0.00 0.00 64 1028.3
20260905144303 55 265 7.0 11.0 0.00 0.00 0.00 63 1028.4
20260905144103 56 277 4.0 11.0 0.00 0.00 0.00 63 1028.0
20260905144003 56 257 4.0 13.0 0.00 0.00 0.00 63 1028.3
20260905143903 55 243 4.0 13.0 0.00 0.00 0.00 64 1028.3
20260905143803 55 229 4.0 13.0 0.00 0.00 0.00 64 1028.2
20260905143703 55 196 4.0 15.0 0.00 0.00 0.00 64 1028.2
20260905143603 55 189 4.0 15.0 0.00 0.00 0.00 64 1028.1
20260905143517 55 198 5.0 15.0 0.00 0.00 0.00 64 1028.2
20260905143503 55 203 4.0 15.0 0.00 0.00 0.00 64 1028.3
20260905143403 55 200 4.0 15.0 0.00 0.00 0.00 64 1028.2
20260905143317 54 194 8.0 15.0 0.00 0.00 0.00 64 1028.3
20260905143203 54 196 8.0 15.0 0.00 0.00 0.00 64 1028.1
20260905143003 55 200 5.0 9.0 0.00 0.00 0.00 64 1028.2
20260905142903 56 209 4.0 9.0 0.00 0.00 0.00 64 1028.1
20260905142803 55 222 4.0 9.0 0.00 0.00 0.00 64 1028.1
20260905142703 55 233 2.0 11.0 0.00 0.00 0.00 65 1028.2
20260905142603 55 218 2.0 11.0 0.00 0.00 0.00 65 1028.2
20260905142503 55 209 4.0 11.0 0.00 0.00 0.00 65 1028.1
20260905142418 55 209 4.0 11.0 0.00 0.00 0.00 65 1028.1
20260905142403 55 212 4.0 11.0 0.00 0.00 0.00 65 1028.1
20260905142103 55 243 4.0 11.0 0.00 0.00 0.00 66 1028.2
20260905142003 54 246 4.0 11.0 0.00 0.00 0.00 66 1028.1
20260905141917 54 238 6.0 11.0 0.00 0.00 0.00 65 1028.0
20260905141903 55 238 4.0 11.0 0.00 0.00 0.00 65 1028.2
20260905141803 55 221 5.0 11.0 0.00 0.00 0.00 65 1028.2
20260905141718 55 212 3.0 13.0 0.00 0.00 0.00 65 1028.1
20260905141603 55 211 4.0 13.0 0.00 0.00 0.00 65 1028.2
20260905141403 54 232 8.0 13.0 0.00 0.00 0.00 66 1028.2
20260905141303 54 244 6.0 13.0 0.00 0.00 0.00 66 1028.0
20260905141217 55 244 5.0 13.0 0.00 0.00 0.00 65 1028.2
20260905141203 55 241 5.0 13.0 0.00 0.00 0.00 65 1028.2
20260905141103 55 231 4.0 13.0 0.00 0.00 0.00 65 1028.2
20260905140903 54 159 4.0 13.0 0.00 0.00 0.00 65 1028.2
20260905140803 55 134 4.0 13.0 0.00 0.00 0.00 65 1028.1
20260905140703 54 130 7.0 13.0 0.00 0.00 0.00 65 1028.3
20260905140603 55 151 4.0 11.0 0.00 0.00 0.00 65 1028.1
20260905140503 55 182 3.0 11.0 0.00 0.00 0.00 65 1027.8
20260905140403 55 164 4.0 11.0 0.00 0.00 0.00 66 1028.4
20260905140303 54 157 3.0 13.0 0.00 0.00 0.00 66 1028.2
20260905140217 54 155 5.0 13.0 0.00 0.00 0.00 66 1028.2
20260905140203 54 170 5.0 13.0 0.00 0.00 0.00 66 1028.2
20260905140103 54 198 4.0 13.0 0.00 0.00 0.00 66 1028.2
20260905135917 54 217 4.0 13.0 0.00 0.00 0.00 66 1028.2
20260905135903 54 226 3.0 13.0 0.00 0.00 0.00 67 1028.0
20260905135817 54 225 5.0 13.0 0.00 0.00 0.00 67 1028.1
20260905135803 54 229 5.0 13.0 0.00 0.00 0.00 67 1028.1
20260905135503 54 193 5.0 11.0 0.00 0.00 0.00 67 1028.1
20260905135403 54 163 7.0 11.0 0.00 0.00 0.00 67 1027.9
20260905135306 54 147 5.0 11.0 0.00 0.00 0.00 66 1028.1
20260905135217 54 153 3.0 11.0 0.00 0.00 0.00 66 1028.0
20260905135203 54 162 3.0 11.0 0.00 0.00 0.00 66 1028.0
20260905135103 54 237 4.0 11.0 0.00 0.00 0.00 66 1028.1
20260905135018 54 245 2.0 11.0 0.00 0.00 0.00 67 1028.3
20260905134903 54 232 4.0 11.0 0.00 0.00 0.00 68 1028.4
20260905134703 53 207 5.0 13.0 0.00 0.00 0.00 67 1028.1
20260905134603 54 194 5.0 13.0 0.00 0.00 0.00 67 1028.1
20260905134503 54 196 5.0 13.0 0.00 0.00 0.00 68 1028.2
20260905134418 54 196 5.0 13.0 0.00 0.00 0.00 68 1028.1
20260905134403 54 197 5.0 13.0 0.00 0.00 0.00 68 1028.1
20260905134316 54 219 5.0 13.0 0.00 0.00 0.00 67 1028.0
20260905134303 54 222 3.0 13.0 0.00 0.00 0.00 67 1028.2
20260905134003 54 207 4.0 9.0 0.00 0.00 0.00 67 1028.1
20260905133903 54 208 4.0 9.0 0.00 0.00 0.00 65 1028.0
20260905133803 55 194 3.0 7.0 0.00 0.00 0.00 66 1028.0
20260905133703 55 199 2.0 9.0 0.00 0.00 0.00 65 1028.0
20260905133603 55 225 1.0 9.0 0.00 0.00 0.00 67 1028.1
20260905133503 54 264 2.0 11.0 0.00 0.00 0.00 67 1027.9
20260905133403 54 295 2.0 11.0 0.00 0.00 0.00 67 1028.0
20260905133318 54 282 2.0 11.0 0.00 0.00 0.00 68 1028.0
20260905133303 54 290 2.0 11.0 0.00 0.00 0.00 68 1028.0
20260905133203 53 279 5.0 11.0 0.00 0.00 0.00 68 1028.1
20260905133003 53 217 6.0 11.0 0.00 0.00 0.00 67 1028.0
20260905132903 54 243 3.0 11.0 0.00 0.00 0.00 68 1028.1
20260905132803 53 234 3.0 11.0 0.00 0.00 0.00 68 1027.9
20260905132708 53 231 4.0 11.0 0.00 0.00 0.00 68 1027.8
20260905132603 54 257 2.0 11.0 0.00 0.00 0.00 69 1028.0
20260905132503 53 262 2.0 11.0 0.00 0.00 0.00 69 1027.9
20260905132403 53 251 6.0 11.0 0.00 0.00 0.00 68 1027.9
20260905132305 53 250 3.0 11.0 0.00 0.00 0.00 68 1028.1
20260905132217 53 244 4.0 11.0 0.00 0.00 0.00 69 1028.0
20260905132203 53 237 4.0 11.0 0.00 0.00 0.00 69 1028.0
20260905132103 53 232 4.0 11.0 0.00 0.00 0.00 69 1027.8
20260905131903 52 221 6.0 11.0 0.00 0.00 0.00 69 1027.8
20260905131817 52 217 5.0 11.0 0.00 0.00 0.00 70 1027.7
20260905131803 52 227 5.0 11.0 0.00 0.00 0.00 70 1027.7
20260905131703 52 263 4.0 11.0 0.00 0.00 0.00 69 1027.7
20260905131503 53 271 4.0 11.0 0.00 0.00 0.00 70 1027.8
20260905131403 52 267 4.0 11.0 0.00 0.00 0.00 70 1027.9
20260905131303 52 299 3.0 11.0 0.00 0.00 0.00 70 1027.7
20260905131203 52 330 3.0 11.0 0.00 0.00 0.00 70 1027.6
20260905131103 52 199 4.0 11.0 0.00 0.00 0.00 70 1027.6
20260905131003 52 154 4.0 11.0 0.00 0.00 0.00 70 1027.8
20260905130903 52 138 4.0 11.0 0.00 0.00 0.00 70 1027.7
20260905130817 52 158 4.0 11.0 0.00 0.00 0.00 70 1027.8
20260905130803 52 172 4.0 11.0 0.00 0.00 0.00 70 1027.8
20260905130703 52 214 8.0 13.0 0.00 0.00 0.00 70 1027.8
20260905130503 52 233 5.0 13.0 0.00 0.00 0.00 69 1027.7
20260905130403 52 233 4.0 13.0 0.00 0.00 0.00 69 1027.9
20260905130303 52 236 4.0 13.0 0.00 0.00 0.00 69 1027.6
20260905130203 52 241 4.0 13.0 0.00 0.00 0.00 69 1027.3
20260905130003 53 286 5.0 11.0 0.00 0.00 0.00 68 1027.5
20260905125916 53 275 2.0 11.0 0.00 0.00 0.00 69 1027.6
20260905125903 52 265 2.0 11.0 0.00 0.00 0.00 69 1027.7
20260905125803 52 247 3.0 11.0 0.00 0.00 0.00 69 1027.3
20260905125718 52 241 3.0 11.0 0.00 0.00 0.00 69 1027.5
20260905125603 52 235 3.0 11.0 0.00 0.00 0.00 70 1027.6
20260905125403 51 220 6.0 11.0 0.00 0.00 0.00 70 1027.4
20260905125306 51 206 4.0 11.0 0.00 0.00 0.00 70 1027.2
20260905125203 51 195 4.0 11.0 0.00 0.00 0.00 70 1027.4
20260905125103 51 200 5.0 11.0 0.00 0.00 0.00 70 1027.6
20260905125018 51 208 2.0 11.0 0.00 0.00 0.00 71 1027.6
20260905125003 51 209 2.0 11.0 0.00 0.00 0.00 71 1027.6
20260905124903 50 221 4.0 11.0 0.00 0.00 0.00 71 1027.6
20260905124703 51 238 4.0 11.0 0.00 0.00 0.00 70 1027.6
20260905124603 50 234 4.0 11.0 0.00 0.00 0.00 70 1027.5
20260905124503 50 228 7.0 11.0 0.00 0.00 0.00 70 1027.5
20260905124303 50 236 5.0 11.0 0.00 0.00 0.00 70 1027.4
20260905124203 50 225 4.0 11.0 0.00 0.00 0.00 70 1027.5
20260905124103 50 198 3.0 11.0 0.00 0.00 0.00 70 1027.4
20260905124003 50 162 4.0 11.0 0.00 0.00 0.00 70 1027.4
20260905123903 50 152 4.0 8.0 0.00 0.00 0.00 70 1027.4
20260905123803 50 120 4.0 8.0 0.00 0.00 0.00 70 1027.4
20260905123717 50 119 4.0 8.0 0.00 0.00 0.00 70 1027.3
20260905123703 50 125 4.0 8.0 0.00 0.00 0.00 70 1027.3
20260905123603 50 141 4.0 8.0 0.00 0.00 0.00 70 1027.3
20260905123403 50 153 2.0 8.0 0.00 0.00 0.00 70 1027.3
20260905123318 50 172 3.0 11.0 0.00 0.00 0.00 70 1027.3
20260905123303 50 184 3.0 11.0 0.00 0.00 0.00 70 1027.3
20260905123216 50 197 3.0 11.0 0.00 0.00 0.00 71 1027.6
20260905123203 50 201 3.0 11.0 0.00 0.00 0.00 71 1027.6
20260905122903 49 229 4.0 11.0 0.00 0.00 0.00 70 1027.3
20260905122803 49 192 4.0 14.0 0.00 0.00 0.00 70 1027.3
20260905122708 50 221 4.0 14.0 0.00 0.00 0.00 70 1027.3
20260905122603 50 233 2.0 14.0 0.00 0.00 0.00 70 1027.4
20260905122503 49 231 3.0 14.0 0.00 0.00 0.00 70 1027.2
20260905122403 49 214 2.0 14.0 0.00 0.00 0.00 70 1027.5
20260905122306 49 246 4.0 11.0 0.00 0.00 0.00 70 1027.3
20260905122203 49 210 4.0 11.0 0.00 0.00 0.00 70 1027.3
20260905122103 49 203 2.0 9.0 0.00 0.00 0.00 70 1027.0
20260905122003 49 220 3.0 9.0 0.00 0.00 0.00 70 1027.2
20260905121903 49 215 4.0 11.0 0.00 0.00 0.00 70 1027.1
20260905121803 49 205 4.0 11.0 0.00 0.00 0.00 70 1027.0
20260905121703 49 221 3.0 11.0 0.00 0.00 0.00 71 1027.1
20260905121603 49 207 4.0 11.0 0.00 0.00 0.00 71 1027.3
20260905121517 49 181 4.0 11.0 0.00 0.00 0.00 71 1027.1
20260905121503 49 180 6.0 11.0 0.00 0.00 0.00 70 1026.9
20260905121403 49 190 4.0 9.0 0.00 0.00 0.00 70 1027.0
20260905121216 49 186 4.0 9.0 0.00 0.00 0.00 71 1027.0
20260905121203 49 185 4.0 9.0 0.00 0.00 0.00 71 1027.0
20260905121103 49 183 5.0 9.0 0.00 0.00 0.00 71 1027.0
20260905120903 49 220 5.0 9.0 0.00 0.00 0.00 70 1027.0
20260905120817 49 220 4.0 8.0 0.00 0.00 0.00 71 1026.9
20260905120804 49 218 4.0 8.0 0.00 0.00 0.00 71 1026.9
20260905120703 49 198 5.0 8.0 0.00 0.00 0.00 70 1027.0
20260905120503 49 190 2.0 8.0 0.00 0.00 0.00 71 1026.9
20260905120403 49 190 3.0 8.0 0.00 0.00 0.00 71 1026.7
20260905120318 48 199 3.0 8.0 0.00 0.00 0.00 71 1026.8
20260905120310 48 205 4.0 8.0 0.00 0.00 0.00 71 1026.9
20260905120003 48 229 2.0 8.0 0.00 0.00 0.00 71 1026.7
20260905115903 49 231 2.0 8.0 0.00 0.00 0.00 71 1026.8
20260905115703 48 212 3.0 11.0 0.00 0.00 0.00 70 1026.9
20260905115603 48 218 3.0 11.0 0.00 0.00 0.00 70 1027.0
20260905115519 48 219 2.0 11.0 0.00 0.00 0.00 70 1026.7
20260905115503 48 218 4.0 11.0 0.00 0.00 0.00 70 1026.6
20260905115403 48 219 4.0 11.0 0.00 0.00 0.00 70 1027.0
20260905115203 48 237 3.0 7.0 0.00 0.00 0.00 70 1026.7
20260905115103 48 242 2.0 7.0 0.00 0.00 0.00 70 1026.9
20260905115003 48 241 2.0 7.0 0.00 0.00 0.00 70 1026.7
20260905114903 48 232 2.0 7.0 0.00 0.00 0.00 70 1026.8
20260905114803 48 214 3.0 7.0 0.00 0.00 0.00 70 1026.7
20260905114717 48 201 2.0 7.0 0.00 0.00 0.00 70 1026.7
20260905114703 48 204 3.0 7.0 0.00 0.00 0.00 70 1026.8
20260905114618 48 190 3.0 7.0 0.00 0.00 0.00 70 1026.5
20260905114603 48 183 3.0 7.0 0.00 0.00 0.00 70 1026.5
20260905114303 47 146 3.0 8.0 0.00 0.00 0.00 70 1026.5
20260905114203 47 153 3.0 8.0 0.00 0.00 0.00 70 1026.5
20260905114103 47 152 2.0 8.0 0.00 0.00 0.00 70 1026.6
20260905114003 47 153 2.0 8.0 0.00 0.00 0.00 70 1026.4
20260905113903 47 184 1.0 4.0 0.00 0.00 0.00 70 1026.4
20260905113717 47 138 2.0 7.0 0.00 0.00 0.00 70 1026.5
20260905113703 47 128 2.0 7.0 0.00 0.00 0.00 70 1026.5
20260905113603 47 131 2.0 7.0 0.00 0.00 0.00 70 1026.2
20260905113403 47 140 2.0 7.0 0.00 0.00 0.00 70 1026.3
20260905113303 47 135 3.0 7.0 0.00 0.00 0.00 70 1026.0
20260905113218 47 145 4.0 7.0 0.00 0.00 0.00 69 1026.1
20260905113203 47 154 4.0 7.0 0.00 0.00 0.00 69 1026.1
20260905113103 47 145 2.0 4.0 0.00 0.00 0.00 69 1025.8
20260905113017 48 151 1.0 4.0 0.00 0.00 0.00 69 1025.9
20260905112903 47 153 1.0 4.0 0.00 0.00 0.00 70 1025.9
20260905112717 47 163 1.0 4.0 0.00 0.00 0.00 70 1026.1
20260905112703 47 172 1.0 4.0 0.00 0.00 0.00 70 1026.0
20260905112603 47 188 2.0 4.0 0.00 0.00 0.00 70 1025.8
20260905112403 47 148 2.0 6.0 0.00 0.00 0.00 69 1025.9
20260905112305 47 155 1.0 7.0 0.00 0.00 0.00 70 1025.8
20260905112203 47 154 1.0 7.0 0.00 0.00 0.00 69 1026.1
20260905112103 47 163 1.0 7.0 0.00 0.00 0.00 69 1026.2
20260905112003 47 168 2.0 7.0 0.00 0.00 0.00 69 1026.2
20260905111918 47 162 2.0 8.0 0.00 0.00 0.00 69 1025.8
20260905111903 47 167 4.0 8.0 0.00 0.00 0.00 69 1026.0
20260905111803 47 172 2.0 8.0 0.00 0.00 0.00 69 1026.1
20260905111717 47 168 2.0 8.0 0.00 0.00 0.00 70 1026.2
20260905111618 47 173 2.0 8.0 0.00 0.00 0.00 70 1025.9
20260905111603 47 178 2.0 8.0 0.00 0.00 0.00 70 1025.9
20260905111518 47 175 2.0 8.0 0.00 0.00 0.00 70 1025.9
20260905111317 47 201 2.0 7.0 0.00 0.00 0.00 69 1025.9
20260905111203 47 218 3.0 7.0 0.00 0.00 0.00 69 1026.0
20260905111003 47 220 4.0 7.0 0.00 0.00 0.00 69 1026.0
20260905110903 47 230 2.0 6.0 0.00 0.00 0.00 69 1026.1
20260905110803 47 222 2.0 6.0 0.00 0.00 0.00 69 1025.9
20260905110703 47 181 1.0 4.0 0.00 0.00 0.00 69 1025.8
20260905110603 47 180 1.0 4.0 0.00 0.00 0.00 69 1026.0
20260905110503 47 186 2.0 4.0 0.00 0.00 0.00 69 1025.8
20260905110403 47 161 2.0 4.0 0.00 0.00 0.00 69 1025.6
20260905110303 47 180 2.0 6.0 0.00 0.00 0.00 69 1025.6
20260905110203 47 191 2.0 6.0 0.00 0.00 0.00 69 1025.7
20260905110003 46 201 2.0 6.0 0.00 0.00 0.00 69 1025.5
20260905105918 46 220 2.0 6.0 0.00 0.00 0.00 69 1025.5
20260905105903 46 228 2.0 6.0 0.00 0.00 0.00 69 1025.5
20260905105818 46 235 3.0 6.0 0.00 0.00 0.00 69 1025.6
20260905105803 46 240 3.0 6.0 0.00 0.00 0.00 69 1025.6
20260905105503 46 241 2.0 4.0 0.00 0.00 0.00 69 1025.6
20260905105403 46 232 2.0 4.0 0.00 0.00 0.00 69 1025.4
20260905105306 46 233 2.0 4.0 0.00 0.00 0.00 69 1025.2
20260905105203 46 226 2.0 4.0 0.00 0.00 0.00 69 1025.3
20260905105103 46 202 2.0 4.0 0.00 0.00 0.00 69 1025.3
20260905105003 46 197 2.0 4.0 0.00 0.00 0.00 69 1025.1
20260905104903 46 173 1.0 4.0 0.00 0.00 0.00 69 1025.3
20260905104803 46 148 2.0 4.0 0.00 0.00 0.00 69 1025.2
20260905104704 46 164 2.0 4.0 0.00 0.00 0.00 69 1025.3
20260905104603 46 141 0.0 4.0 0.00 0.00 0.00 69 1025.1
20260905104518 46 158 1.0 4.0 0.00 0.00 0.00 69 1025.3
20260905104503 46 167 1.0 4.0 0.00 0.00 0.00 69 1025.3